Observation data for Van Horn on 02/13/2020      Previous  Date  Next       Current Mesonet Observations  Soil Data  Daily Summary Page  Observations in Plain Language
KVA1 130600Z 21004KT 01/M01 A3014 RMK A01 T00121005  RH  088%=      5-min Rain = 0
KVA1 130601Z 21005KT 01/M01 A3014 RMK A01 T00111006  RH  089%=      5-min Rain = 0
KVA1 130602Z 20005KT 01/M01 A3014 RMK A01 T00111006  RH  089%=      5-min Rain = 0
KVA1 130603Z 21005KT 01/M01 A3014 RMK A01 T00101006  RH  089%=      5-min Rain = 0
KVA1 130604Z 21005KT 01/M01 A3014 RMK A01 T00101005  RH  089%=      5-min Rain = 0
KVA1 130605Z 21006KT 01/M01 A3014 RMK A01 T00101006  RH  089%=      5-min Rain = 0
KVA1 130606Z 21006KT 01/M01 A3014 RMK A01 T00101006  RH  089%=      5-min Rain = 0
KVA1 130607Z 21005KT 01/M01 A3014 RMK A01 T00101006  RH  090%=      5-min Rain = 0
KVA1 130608Z 22006KT 01/M01 A3014 RMK A01 T00091006  RH  090%=      5-min Rain = 0
KVA1 130609Z 21006KT 01/M01 A3014 RMK A01 T00101005  RH  090%=      5-min Rain = 0
KVA1 130610Z 21006KT 01/M01 A3014 RMK A01 T00101005  RH  090%=      5-min Rain = 0
KVA1 130611Z 21006KT 01/M01 A3014 RMK A01 T00101005  RH  090%=      5-min Rain = 0
KVA1 130612Z 21004KT 01/M01 A3014 RMK A01 T00091006  RH  090%=      5-min Rain = 0
KVA1 130613Z 21005KT 01/M01 A3014 RMK A01 T00091006  RH  090%=      5-min Rain = 0
KVA1 130614Z 22005KT 01/M01 A3014 RMK A01 T00081007  RH  090%=      5-min Rain = 0
KVA1 130615Z 22006KT 01/M01 A3014 RMK A01 T00071008  RH  090%=      5-min Rain = 0
KVA1 130616Z 22006KT 01/M01 A3014 RMK A01 T00071007  RH  090%=      5-min Rain = 0
KVA1 130617Z 22005KT 01/M01 A3014 RMK A01 T00071007  RH  091%=      5-min Rain = 0
KVA1 130618Z 22006KT 01/M01 A3014 RMK A01 T00071007  RH  091%=      5-min Rain = 0
KVA1 130619Z 22006KT 01/M01 A3014 RMK A01 T00071007  RH  091%=      5-min Rain = 0
KVA1 130620Z 23006KT 01/M01 A3014 RMK A01 T00071007  RH  091%=      5-min Rain = 0
KVA1 130621Z 23005KT 01/M01 A3014 RMK A01 T00071006  RH  091%=      5-min Rain = 0
KVA1 130622Z 25004KT 01/M01 A3014 RMK A01 T00071006  RH  091%=      5-min Rain = 0
KVA1 130623Z 24004KT 01/M01 A3014 RMK A01 T00071006  RH  091%=      5-min Rain = 0
KVA1 130624Z 23004KT 01/M01 A3014 RMK A01 T00061007  RH  091%=      5-min Rain = 0
KVA1 130625Z 24004KT 01/M01 A3014 RMK A01 T00061007  RH  091%=      5-min Rain = 0
KVA1 130626Z 25003KT 01/M01 A3014 RMK A01 T00061007  RH  091%=      5-min Rain = 0
KVA1 130627Z 24003KT 01/M01 A3014 RMK A01 T00061007  RH  091%=      5-min Rain = 0
KVA1 130628Z 24003KT 01/M01 A3015 RMK A01 T00061007  RH  091%=      5-min Rain = 0
KVA1 130629Z 23003KT 01/M01 A3015 RMK A01 T00061007  RH  091%=      5-min Rain = 0
KVA1 130630Z 22003KT 01/M01 A3015 RMK A01 T00061007  RH  091%=      5-min Rain = 0
KVA1 130631Z 21004KT 01/M01 A3015 RMK A01 T00061007  RH  091%=      5-min Rain = 0
KVA1 130632Z 21005KT 01/M01 A3015 RMK A01 T00061007  RH  091%=      5-min Rain = 0
KVA1 130633Z 21006KT 01/M01 A3015 RMK A01 T00061007  RH  091%=      5-min Rain = 0
KVA1 130634Z 21005KT 01/M01 A3015 RMK A01 T00061007  RH  091%=      5-min Rain = 0
KVA1 130635Z 20006KT 01/M01 A3015 RMK A01 T00071006  RH  091%=      5-min Rain = 0
KVA1 130636Z 20007KT 01/M01 A3015 RMK A01 T00081005  RH  091%=      5-min Rain = 0
KVA1 130637Z 20007KT 01/M00 A3015 RMK A01 T00091004  RH  091%=      5-min Rain = 0
KVA1 130638Z 21006KT 01/M01 A3015 RMK A01 T00101005  RH  090%=      5-min Rain = 0
KVA1 130639Z 22005KT 01/M01 A3015 RMK A01 T00101006  RH  089%=      5-min Rain = 0
KVA1 130640Z 22005KT 01/M01 A3015 RMK A01 T00101006  RH  089%=      5-min Rain = 0
KVA1 130641Z 22006KT 01/M01 A3015 RMK A01 T00111006  RH  089%=      5-min Rain = 0
KVA1 130642Z 22006KT 01/M01 A3015 RMK A01 T00111006  RH  088%=      5-min Rain = 0
KVA1 130643Z 22005KT 01/M01 A3015 RMK A01 T00131005  RH  088%=      5-min Rain = 0
KVA1 130644Z 23005KT 01/M01 A3015 RMK A01 T00131006  RH  087%=      5-min Rain = 0
KVA1 130645Z 23004KT 01/M01 A3015 RMK A01 T00121007  RH  087%=      5-min Rain = 0
KVA1 130646Z 23006KT 01/M01 A3015 RMK A01 T00121007  RH  087%=      5-min Rain = 0
KVA1 130647Z 23006KT 01/M01 A3015 RMK A01 T00121007  RH  088%=      5-min Rain = 0
KVA1 130648Z 23006KT 01/M01 A3015 RMK A01 T00121006  RH  088%=      5-min Rain = 0
KVA1 130649Z 23006KT 01/M01 A3015 RMK A01 T00131005  RH  088%=      5-min Rain = 0
KVA1 130650Z 23006KT 01/M01 A3015 RMK A01 T00131005  RH  088%=      5-min Rain = 0
KVA1 130651Z 23006KT 01/M01 A3015 RMK A01 T00131006  RH  087%=      5-min Rain = 0
KVA1 130652Z 23006KT 01/M01 A3015 RMK A01 T00131006  RH  087%=      5-min Rain = 0
KVA1 130653Z 24005KT 01/M01 A3015 RMK A01 T00121007  RH  087%=      5-min Rain = 0
KVA1 130654Z 24005KT 01/M01 A3015 RMK A01 T00121007  RH  087%=      5-min Rain = 0
KVA1 130655Z 23005KT 01/M01 A3015 RMK A01 T00111007  RH  088%=      5-min Rain = 0
KVA1 130656Z 23005KT 01/M01 A3015 RMK A01 T00101007  RH  088%=      5-min Rain = 0
KVA1 130657Z 23005KT 01/M01 A3015 RMK A01 T00101008  RH  088%=      5-min Rain = 0
KVA1 130658Z 23004KT 01/M01 A3015 RMK A01 T00091008  RH  089%=      5-min Rain = 0
KVA1 130659Z 23004KT 01/M01 A3015 RMK A01 T00081008  RH  089%=      5-min Rain = 0
KVA1 130700Z 23005KT 01/M01 A3015 RMK A01 T00081008  RH  089%=      5-min Rain = 0
KVA1 130701Z 23004KT 01/M01 A3015 RMK A01 T00071008  RH  090%=      5-min Rain = 0
KVA1 130702Z 23005KT 01/M01 A3015 RMK A01 T00061008  RH  090%=      5-min Rain = 0
KVA1 130703Z 23006KT 01/M01 A3015 RMK A01 T00061009  RH  090%=      5-min Rain = 0
KVA1 130704Z 23006KT 01/M01 A3015 RMK A01 T00051009  RH  090%=      5-min Rain = 0
KVA1 130705Z 23006KT 00/M01 A3015 RMK A01 T00041010  RH  090%=      5-min Rain = 0
KVA1 130706Z 23006KT 00/M01 A3015 RMK A01 T00031011  RH  091%=      5-min Rain = 0
KVA1 130707Z 24005KT 00/M01 A3015 RMK A01 T00021011  RH  091%=      5-min Rain = 0
KVA1 130708Z 24005KT 00/M01 A3015 RMK A01 T00021010  RH  091%=      5-min Rain = 0
KVA1 130709Z 24005KT 00/M01 A3015 RMK A01 T00021010  RH  092%=      5-min Rain = 0
KVA1 130710Z 24005KT 00/M01 A3015 RMK A01 T00021010  RH  092%=      5-min Rain = 0
KVA1 130711Z 24005KT 00/M01 A3015 RMK A01 T00021009  RH  092%=      5-min Rain = 0
KVA1 130712Z 24005KT 00/M01 A3015 RMK A01 T00031008  RH  092%=      5-min Rain = 0
KVA1 130713Z 25005KT 00/M01 A3015 RMK A01 T00021009  RH  092%=      5-min Rain = 0
KVA1 130714Z 25005KT 00/M01 A3015 RMK A01 T00031009  RH  092%=      5-min Rain = 0
KVA1 130715Z 25005KT 00/M01 A3015 RMK A01 T00031009  RH  092%=      5-min Rain = 0
KVA1 130716Z 25005KT 00/M01 A3015 RMK A01 T00021009  RH  092%=      5-min Rain = 0
KVA1 130717Z 25005KT 00/M01 A3015 RMK A01 T00021009  RH  092%=      5-min Rain = 0
KVA1 130718Z 25004KT 00/M01 A3015 RMK A01 T00021009  RH  092%=      5-min Rain = 0
KVA1 130719Z 25004KT 00/M01 A3015 RMK A01 T00021009  RH  092%=      5-min Rain = 0
KVA1 130720Z 25004KT 00/M01 A3015 RMK A01 T00031008  RH  092%=      5-min Rain = 0
KVA1 130721Z 24004KT 00/M01 A3015 RMK A01 T00021009  RH  092%=      5-min Rain = 0
KVA1 130722Z 23004KT 00/M01 A3015 RMK A01 T00021009  RH  092%=      5-min Rain = 0
KVA1 130723Z 20006KT 00/M01 A3015 RMK A01 T00011010  RH  092%=      5-min Rain = 0
KVA1 130724Z 22006KT 00/01 A3015 RMK A01 T00000-11  RH  092%=      5-min Rain = 0
KVA1 130725Z 23006KT 00/01 A3015 RMK A01 T00000-10  RH  093%=      5-min Rain = 0
KVA1 130726Z 23006KT 00/M01 A3015 RMK A01 T00011009  RH  093%=      5-min Rain = 0
KVA1 130727Z 24006KT 00/M01 A3015 RMK A01 T00021009  RH  093%=      5-min Rain = 0
KVA1 130728Z 24006KT 00/M01 A3015 RMK A01 T00021009  RH  092%=      5-min Rain = 0
KVA1 130729Z 24007KT 00/M01 A3015 RMK A01 T00021009  RH  092%=      5-min Rain = 0
KVA1 130730Z 24006KT 00/M01 A3015 RMK A01 T00031008  RH  092%=      5-min Rain = 0
KVA1 130731Z 24005KT 00/M01 A3015 RMK A01 T00041008  RH  092%=      5-min Rain = 0
KVA1 130732Z 23005KT 00/M01 A3015 RMK A01 T00041008  RH  092%=      5-min Rain = 0
KVA1 130733Z 21004KT 00/M01 A3015 RMK A01 T00041008  RH  092%=      5-min Rain = 0
KVA1 130734Z 22005KT 00/M01 A3015 RMK A01 T00041008  RH  091%=      5-min Rain = 0
KVA1 130735Z 23005KT 00/M01 A3015 RMK A01 T00041009  RH  091%=      5-min Rain = 0
KVA1 130736Z 22004KT 00/M01 A3015 RMK A01 T00041008  RH  091%=      5-min Rain = 0
KVA1 130737Z 23005KT 00/M01 A3015 RMK A01 T00041009  RH  091%=      5-min Rain = 0
KVA1 130738Z 23004KT 00/M01 A3015 RMK A01 T00031009  RH  091%=      5-min Rain = 0
KVA1 130739Z 23005KT 00/M01 A3015 RMK A01 T00031010  RH  091%=      5-min Rain = 0
KVA1 130740Z 22005KT 00/M01 A3015 RMK A01 T00021010  RH  091%=      5-min Rain = 0
KVA1 130741Z 22006KT 00/M01 A3015 RMK A01 T00021010  RH  092%=      5-min Rain = 0
KVA1 130742Z 21005KT 00/M01 A3015 RMK A01 T00011011  RH  092%=      5-min Rain = 0
KVA1 130743Z 21005KT 00/M01 A3015 RMK A01 T00011010  RH  092%=      5-min Rain = 0
KVA1 130744Z 21006KT 00/M01 A3015 RMK A01 T00011011  RH  092%=      5-min Rain = 0
KVA1 130745Z 22006KT 00/M01 A3015 RMK A01 T00011011  RH  092%=      5-min Rain = 0
KVA1 130746Z 22006KT 00/M01 A3015 RMK A01 T00011011  RH  092%=      5-min Rain = 0
KVA1 130747Z 23007KT 00/M01 A3015 RMK A01 T00011011  RH  092%=      5-min Rain = 0
KVA1 130748Z 23007KT 00/M01 A3015 RMK A01 T00011011  RH  092%=      5-min Rain = 0
KVA1 130749Z 23006KT 00/M01 A3015 RMK A01 T00011011  RH  092%=      5-min Rain = 0
KVA1 130750Z 23006KT 00/M01 A3015 RMK A01 T00011011  RH  092%=      5-min Rain = 0
KVA1 130751Z 23006KT 00/M01 A3015 RMK A01 T00011011  RH  092%=      5-min Rain = 0
KVA1 130752Z 23006KT 00/M01 A3015 RMK A01 T00011011  RH  092%=      5-min Rain = 0
KVA1 130753Z 23006KT 00/M01 A3015 RMK A01 T00011011  RH  092%=      5-min Rain = 0
KVA1 130754Z 24006KT 00/M01 A3015 RMK A01 T00011011  RH  092%=      5-min Rain = 0
KVA1 130755Z 24006KT 00/M01 A3015 RMK A01 T00011011  RH  092%=      5-min Rain = 0
KVA1 130756Z 24006KT 00/M01 A3016 RMK A01 T00011011  RH  092%=      5-min Rain = 0
KVA1 130757Z 23005KT 00/M01 A3016 RMK A01 T00011011  RH  092%=      5-min Rain = 0
KVA1 130758Z 23006KT 00/M01 A3016 RMK A01 T00011011  RH  092%=      5-min Rain = 0
KVA1 130759Z 23006KT 00/M01 A3016 RMK A01 T00011011  RH  092%=      5-min Rain = 0
KVA1 130800Z 23006KT 00/M01 A3016 RMK A01 T00021010  RH  092%=      5-min Rain = 0
KVA1 130801Z 23006KT 00/M01 A3016 RMK A01 T00031009  RH  091%=      5-min Rain = 0
KVA1 130802Z 23006KT 00/M01 A3016 RMK A01 T00041009  RH  091%=      5-min Rain = 0
KVA1 130803Z 23006KT 00/M01 A3016 RMK A01 T00041010  RH  090%=      5-min Rain = 0
KVA1 130804Z 23007KT 01/M01 A3016 RMK A01 T00051010  RH  090%=      5-min Rain = 0
KVA1 130805Z 23007KT 00/M01 A3016 RMK A01 T00041011  RH  090%=      5-min Rain = 0
KVA1 130806Z 23007KT 00/M01 A3016 RMK A01 T00041011  RH  090%=      5-min Rain = 0
KVA1 130807Z 23006KT 00/M01 A3016 RMK A01 T00041011  RH  090%=      5-min Rain = 0
KVA1 130808Z 24007KT 00/M01 A3016 RMK A01 T00041011  RH  090%=      5-min Rain = 0
KVA1 130809Z 24007KT 00/M01 A3016 RMK A01 T00031012  RH  090%=      5-min Rain = 0
KVA1 130810Z 24007KT 00/M01 A3016 RMK A01 T00031012  RH  090%=      5-min Rain = 0
KVA1 130811Z 24007KT 00/M01 A3016 RMK A01 T00031011  RH  090%=      5-min Rain = 0
KVA1 130812Z 23007KT 00/M01 A3016 RMK A01 T00021012  RH  090%=      5-min Rain = 0
KVA1 130813Z 24007KT 00/M01 A3016 RMK A01 T00031011  RH  090%=      5-min Rain = 0
KVA1 130814Z 24007KT 00/M01 A3015 RMK A01 T00031011  RH  090%=      5-min Rain = 0
KVA1 130815Z 24007KT 00/M01 A3015 RMK A01 T00031011  RH  090%=      5-min Rain = 0
KVA1 130816Z 24007KT 00/M01 A3015 RMK A01 T00031011  RH  090%=      5-min Rain = 0
KVA1 130817Z 24007KT 00/M01 A3015 RMK A01 T00031011  RH  090%=      5-min Rain = 0
KVA1 130818Z 25007KT 00/M01 A3015 RMK A01 T00041011  RH  090%=      5-min Rain = 0
KVA1 130819Z 24007KT 00/M01 A3015 RMK A01 T00041011  RH  090%=      5-min Rain = 0
KVA1 130820Z 25006KT 00/M01 A3015 RMK A01 T00041011  RH  090%=      5-min Rain = 0
KVA1 130821Z 25006KT 01/M01 A3015 RMK A01 T00051011  RH  089%=      5-min Rain = 0
KVA1 130822Z 25006KT 01/M01 A3015 RMK A01 T00051011  RH  089%=      5-min Rain = 0
KVA1 130823Z 25005KT 01/M01 A3015 RMK A01 T00051011  RH  089%=      5-min Rain = 0
KVA1 130824Z 25006KT 01/M01 A3015 RMK A01 T00051011  RH  089%=      5-min Rain = 0
KVA1 130825Z 24005KT 01/M01 A3015 RMK A01 T00051011  RH  089%=      5-min Rain = 0
KVA1 130826Z 24005KT 01/M01 A3015 RMK A01 T00051011  RH  089%=      5-min Rain = 0
KVA1 130827Z 24006KT 01/M01 A3015 RMK A01 T00051012  RH  089%=      5-min Rain = 0
KVA1 130828Z 24006KT 00/M01 A3015 RMK A01 T00041012  RH  089%=      5-min Rain = 0
KVA1 130829Z 24006KT 00/M01 A3015 RMK A01 T00041011  RH  089%=      5-min Rain = 0
KVA1 130830Z 24006KT 00/M01 A3016 RMK A01 T00041011  RH  089%=      5-min Rain = 0
KVA1 130831Z 24006KT 00/M01 A3016 RMK A01 T00041012  RH  089%=      5-min Rain = 0
KVA1 130832Z 24006KT 00/M01 A3016 RMK A01 T00041012  RH  089%=      5-min Rain = 0
KVA1 130833Z 24006KT 00/M01 A3016 RMK A01 T00041012  RH  089%=      5-min Rain = 0
KVA1 130834Z 24006KT 00/M01 A3015 RMK A01 T00031012  RH  089%=      5-min Rain = 0
KVA1 130835Z 24006KT 00/M01 A3015 RMK A01 T00031012  RH  089%=      5-min Rain = 0
KVA1 130836Z 24006KT 00/M01 A3015 RMK A01 T00031012  RH  089%=      5-min Rain = 0
KVA1 130837Z 24006KT 00/M01 A3015 RMK A01 T00031012  RH  090%=      5-min Rain = 0
KVA1 130838Z 24006KT 00/M01 A3015 RMK A01 T00021013  RH  090%=      5-min Rain = 0
KVA1 130839Z 24006KT 00/M01 A3015 RMK A01 T00021013  RH  090%=      5-min Rain = 0
KVA1 130840Z 24005KT 00/M01 A3015 RMK A01 T00021013  RH  090%=      5-min Rain = 0
KVA1 130841Z 24005KT 00/M01 A3015 RMK A01 T00021013  RH  090%=      5-min Rain = 0
KVA1 130842Z 24005KT 00/M01 A3015 RMK A01 T00021013  RH  090%=      5-min Rain = 0
KVA1 130843Z 24005KT 00/M01 A3015 RMK A01 T00021013  RH  090%=      5-min Rain = 0
KVA1 130844Z 24005KT 00/M01 A3015 RMK A01 T00011013  RH  090%=      5-min Rain = 0
KVA1 130845Z 24005KT 00/M01 A3016 RMK A01 T00011013  RH  090%=      5-min Rain = 0
KVA1 130846Z 24006KT 00/M01 A3016 RMK A01 T00011013  RH  090%=      5-min Rain = 0
KVA1 130847Z 24006KT 00/M01 A3016 RMK A01 T00011014  RH  090%=      5-min Rain = 0
KVA1 130848Z 24005KT 00/01 A3016 RMK A01 T00000-14  RH  090%=      5-min Rain = 0
KVA1 130849Z 24005KT 00/01 A3016 RMK A01 T00000-13  RH  091%=      5-min Rain = 0
KVA1 130850Z 24005KT 00/01 A3016 RMK A01 T00-00-14  RH  091%=      5-min Rain = 0
KVA1 130851Z 24006KT 00/01 A3015 RMK A01 T00000-13  RH  091%=      5-min Rain = 0
KVA1 130852Z 24006KT 00/01 A3015 RMK A01 T00-00-13  RH  091%=      5-min Rain = 0
KVA1 130853Z 24006KT 00/01 A3015 RMK A01 T00-00-14  RH  091%=      5-min Rain = 0
KVA1 130854Z 24006KT 00/01 A3015 RMK A01 T00-00-13  RH  091%=      5-min Rain = 0
KVA1 130855Z 24005KT 00/01 A3015 RMK A01 T00000-13  RH  091%=      5-min Rain = 0
KVA1 130856Z 24006KT 00/01 A3015 RMK A01 T00000-13  RH  091%=      5-min Rain = 0
KVA1 130857Z 24006KT 00/01 A3015 RMK A01 T00000-13  RH  091%=      5-min Rain = 0
KVA1 130858Z 24006KT 00/01 A3015 RMK A01 T00000-13  RH  091%=      5-min Rain = 0
KVA1 130859Z 24006KT 00/M01 A3015 RMK A01 T00011013  RH  091%=      5-min Rain = 0
KVA1 130900Z 23006KT 00/M01 A3015 RMK A01 T00011012  RH  091%=      5-min Rain = 0
KVA1 130901Z 23006KT 00/M01 A3015 RMK A01 T00021012  RH  090%=      5-min Rain = 0
KVA1 130902Z 23006KT 00/M01 A3015 RMK A01 T00021013  RH  090%=      5-min Rain = 0
KVA1 130903Z 23006KT 00/M01 A3015 RMK A01 T00021012  RH  090%=      5-min Rain = 0
KVA1 130904Z 23006KT 00/M01 A3015 RMK A01 T00021012  RH  090%=      5-min Rain = 0
KVA1 130905Z 23006KT 00/M01 A3015 RMK A01 T00021013  RH  090%=      5-min Rain = 0
KVA1 130906Z 24005KT 00/M01 A3015 RMK A01 T00021012  RH  090%=      5-min Rain = 0
KVA1 130907Z 23006KT 00/M01 A3015 RMK A01 T00021013  RH  090%=      5-min Rain = 0
KVA1 130908Z 24006KT 00/M01 A3015 RMK A01 T00021013  RH  090%=      5-min Rain = 0
KVA1 130909Z 24006KT 00/M01 A3015 RMK A01 T00021013  RH  090%=      5-min Rain = 0
KVA1 130910Z 24006KT 00/M01 A3015 RMK A01 T00021013  RH  090%=      5-min Rain = 0
KVA1 130911Z 25006KT 00/M01 A3015 RMK A01 T00021013  RH  090%=      5-min Rain = 0
KVA1 130912Z 25006KT 00/M01 A3015 RMK A01 T00021013  RH  090%=      5-min Rain = 0
KVA1 130913Z 25006KT 00/M01 A3015 RMK A01 T00021013  RH  090%=      5-min Rain = 0
KVA1 130914Z 25006KT 00/M01 A3015 RMK A01 T00011013  RH  090%=      5-min Rain = 0
KVA1 130915Z 25006KT 00/M01 A3015 RMK A01 T00011013  RH  090%=      5-min Rain = 0
KVA1 130916Z 25006KT 00/M01 A3015 RMK A01 T00011013  RH  090%=      5-min Rain = 0
KVA1 130917Z 25006KT 00/M01 A3015 RMK A01 T00011013  RH  090%=      5-min Rain = 0
KVA1 130918Z 25006KT 00/M01 A3015 RMK A01 T00011013  RH  090%=      5-min Rain = 0
KVA1 130919Z 25007KT 00/M01 A3015 RMK A01 T00011013  RH  090%=      5-min Rain = 0
KVA1 130920Z 25007KT 00/M01 A3015 RMK A01 T00011013  RH  090%=      5-min Rain = 0
KVA1 130921Z 25006KT 00/M01 A3015 RMK A01 T00011013  RH  090%=      5-min Rain = 0
KVA1 130922Z 25006KT 00/M01 A3015 RMK A01 T00011013  RH  090%=      5-min Rain = 0
KVA1 130923Z 25005KT 00/M01 A3015 RMK A01 T00011013  RH  090%=      5-min Rain = 0
KVA1 130924Z 25006KT 00/M01 A3015 RMK A01 T00011013  RH  090%=      5-min Rain = 0
KVA1 130925Z 25006KT 00/M01 A3015 RMK A01 T00011013  RH  090%=      5-min Rain = 0
KVA1 130926Z 25006KT 00/M01 A3015 RMK A01 T00011013  RH  090%=      5-min Rain = 0
KVA1 130927Z 25006KT 00/M01 A3015 RMK A01 T00011013  RH  090%=      5-min Rain = 0
KVA1 130928Z 25005KT 00/M01 A3015 RMK A01 T00011013  RH  090%=      5-min Rain = 0
KVA1 130929Z 26006KT 00/M01 A3015 RMK A01 T00011013  RH  090%=      5-min Rain = 0
KVA1 130930Z 25004KT 00/M01 A3015 RMK A01 T00011013  RH  090%=      5-min Rain = 0
KVA1 130931Z 25004KT 00/M01 A3015 RMK A01 T00011014  RH  090%=      5-min Rain = 0
KVA1 130932Z 25005KT 00/M01 A3015 RMK A01 T00011014  RH  090%=      5-min Rain = 0
KVA1 130933Z 25005KT 00/02 A3015 RMK A01 T00-00-15  RH  090%=      5-min Rain = 0
KVA1 130934Z 25005KT 00/01 A3015 RMK A01 T00-00-14  RH  090%=      5-min Rain = 0
KVA1 130935Z 25005KT 00/01 A3015 RMK A01 T00-00-14  RH  090%=      5-min Rain = 0
KVA1 130936Z 25005KT 00/01 A3015 RMK A01 T00-00-14  RH  091%=      5-min Rain = 0
KVA1 130937Z 25005KT 00/01 A3015 RMK A01 T00-00-14  RH  091%=      5-min Rain = 0
KVA1 130938Z 25005KT 00/01 A3015 RMK A01 T00-00-14  RH  091%=      5-min Rain = 0
KVA1 130939Z 25005KT 00/01 A3015 RMK A01 T00-00-14  RH  091%=      5-min Rain = 0
KVA1 130940Z 25005KT M00/M02 A3015 RMK A01 T10011015  RH  091%=      5-min Rain = 0
KVA1 130941Z 25005KT M00/M01 A3015 RMK A01 T10011014  RH  091%=      5-min Rain = 0
KVA1 130942Z 24005KT M00/M02 A3015 RMK A01 T10011015  RH  091%=      5-min Rain = 0
KVA1 130943Z 24005KT M00/M02 A3015 RMK A01 T10021015  RH  091%=      5-min Rain = 0
KVA1 130944Z 23005KT M00/M02 A3015 RMK A01 T10021016  RH  091%=      5-min Rain = 0
KVA1 130945Z 23005KT M00/M02 A3015 RMK A01 T10031016  RH  091%=      5-min Rain = 0
KVA1 130946Z 23005KT M00/M02 A3015 RMK A01 T10021015  RH  091%=      5-min Rain = 0
KVA1 130947Z 23005KT M00/M02 A3015 RMK A01 T10031015  RH  091%=      5-min Rain = 0
KVA1 130948Z 23005KT M00/M02 A3015 RMK A01 T10031015  RH  091%=      5-min Rain = 0
KVA1 130949Z 23005KT M00/M02 A3015 RMK A01 T10031016  RH  091%=      5-min Rain = 0
KVA1 130950Z 23005KT M00/M02 A3015 RMK A01 T10031016  RH  091%=      5-min Rain = 0
KVA1 130951Z 22005KT M00/M02 A3015 RMK A01 T10041016  RH  091%=      5-min Rain = 0
KVA1 130952Z 22005KT M00/M02 A3015 RMK A01 T10041016  RH  091%=      5-min Rain = 0
KVA1 130953Z 22005KT M00/M02 A3015 RMK A01 T10041016  RH  092%=      5-min Rain = 0
KVA1 130954Z 22005KT M00/M02 A3014 RMK A01 T10041016  RH  092%=      5-min Rain = 0
KVA1 130955Z 22005KT M00/M02 A3014 RMK A01 T10041016  RH  092%=      5-min Rain = 0
KVA1 130956Z 22005KT M01/M02 A3014 RMK A01 T10051016  RH  092%=      5-min Rain = 0
KVA1 130957Z 22004KT M01/M02 A3014 RMK A01 T10051016  RH  092%=      5-min Rain = 0
KVA1 130958Z 21004KT M01/M02 A3014 RMK A01 T10051017  RH  092%=      5-min Rain = 0
KVA1 130959Z 21004KT M01/M02 A3014 RMK A01 T10051017  RH  092%=      5-min Rain = 0
KVA1 131000Z 21004KT M01/M02 A3014 RMK A01 T10061017  RH  092%=      5-min Rain = 0
KVA1 131001Z 21004KT M01/M02 A3015 RMK A01 T10061018  RH  092%=      5-min Rain = 0
KVA1 131002Z 21004KT M01/M02 A3015 RMK A01 T10071018  RH  092%=      5-min Rain = 0
KVA1 131003Z 21005KT M01/M02 A3015 RMK A01 T10071019  RH  092%=      5-min Rain = 0
KVA1 131004Z 21005KT M01/M02 A3015 RMK A01 T10081019  RH  092%=      5-min Rain = 0
KVA1 131005Z 21005KT M01/M02 A3015 RMK A01 T10081019  RH  092%=      5-min Rain = 0
KVA1 131006Z 21005KT M01/M02 A3015 RMK A01 T10091019  RH  093%=      5-min Rain = 0
KVA1 131007Z 21005KT M01/M02 A3015 RMK A01 T10091019  RH  093%=      5-min Rain = 0
KVA1 131008Z 21005KT M01/M02 A3015 RMK A01 T10081018  RH  093%=      5-min Rain = 0
KVA1 131009Z 21004KT M01/M02 A3015 RMK A01 T10081018  RH  093%=      5-min Rain = 0
KVA1 131010Z 21004KT M01/M02 A3015 RMK A01 T10081018  RH  093%=      5-min Rain = 0
KVA1 131011Z 21005KT M01/M02 A3015 RMK A01 T10091018  RH  093%=      5-min Rain = 0
KVA1 131012Z 21004KT M01/M02 A3015 RMK A01 T10081018  RH  093%=      5-min Rain = 0
KVA1 131013Z 21004KT M01/M02 A3015 RMK A01 T10091018  RH  093%=      5-min Rain = 0
KVA1 131014Z 20004KT M01/M02 A3015 RMK A01 T10081018  RH  093%=      5-min Rain = 0
KVA1 131015Z 21004KT M01/M02 A3015 RMK A01 T10081018  RH  093%=      5-min Rain = 0
KVA1 131016Z 20004KT M01/M02 A3015 RMK A01 T10081017  RH  093%=      5-min Rain = 0
KVA1 131017Z 20004KT M01/M02 A3015 RMK A01 T10081017  RH  093%=      5-min Rain = 0
KVA1 131018Z 21004KT M01/M02 A3015 RMK A01 T10071017  RH  093%=      5-min Rain = 0
KVA1 131019Z 21004KT M01/M02 A3015 RMK A01 T10081017  RH  093%=      5-min Rain = 0
KVA1 131020Z 21004KT M01/M02 A3015 RMK A01 T10071017  RH  093%=      5-min Rain = 0
KVA1 131021Z 21004KT M01/M02 A3015 RMK A01 T10081017  RH  093%=      5-min Rain = 0
KVA1 131022Z 21004KT M01/M02 A3015 RMK A01 T10081018  RH  093%=      5-min Rain = 0
KVA1 131023Z 21004KT M01/M02 A3015 RMK A01 T10081018  RH  093%=      5-min Rain = 0
KVA1 131024Z 21004KT M01/M02 A3015 RMK A01 T10081017  RH  093%=      5-min Rain = 0
KVA1 131025Z 22004KT M01/M02 A3015 RMK A01 T10081017  RH  093%=      5-min Rain = 0
KVA1 131026Z 22004KT M01/M02 A3015 RMK A01 T10071017  RH  093%=      5-min Rain = 0
KVA1 131027Z 22004KT M01/M02 A3015 RMK A01 T10071017  RH  093%=      5-min Rain = 0
KVA1 131028Z 21004KT M01/M02 A3015 RMK A01 T10071017  RH  093%=      5-min Rain = 0
KVA1 131029Z 22004KT M01/M02 A3015 RMK A01 T10081018  RH  093%=      5-min Rain = 0
KVA1 131030Z 22004KT M01/M02 A3015 RMK A01 T10091020  RH  092%=      5-min Rain = 0
KVA1 131031Z 21004KT M01/M02 A3015 RMK A01 T10101021  RH  092%=      5-min Rain = 0
KVA1 131032Z 21004KT M01/M02 A3015 RMK A01 T10101021  RH  092%=      5-min Rain = 0
KVA1 131033Z 20004KT M01/M02 A3015 RMK A01 T10101021  RH  093%=      5-min Rain = 0
KVA1 131034Z 20004KT M01/M02 A3015 RMK A01 T10101019  RH  093%=      5-min Rain = 0
KVA1 131035Z 20004KT M01/M02 A3015 RMK A01 T10091019  RH  093%=      5-min Rain = 0
KVA1 131036Z 20004KT M01/M02 A3015 RMK A01 T10091018  RH  093%=      5-min Rain = 0
KVA1 131037Z 20004KT M01/M02 A3015 RMK A01 T10091018  RH  093%=      5-min Rain = 0
KVA1 131038Z 20004KT M01/M02 A3015 RMK A01 T10091018  RH  093%=      5-min Rain = 0
KVA1 131039Z 21005KT M01/M02 A3015 RMK A01 T10091018  RH  093%=      5-min Rain = 0
KVA1 131040Z 21005KT M01/M02 A3015 RMK A01 T10091018  RH  093%=      5-min Rain = 0
KVA1 131041Z 21005KT M01/M02 A3015 RMK A01 T10091019  RH  093%=      5-min Rain = 0
KVA1 131042Z 22005KT M01/M02 A3015 RMK A01 T10091019  RH  093%=      5-min Rain = 0
KVA1 131043Z 22005KT M01/M02 A3015 RMK A01 T10091019  RH  093%=      5-min Rain = 0
KVA1 131044Z 22005KT M01/M02 A3015 RMK A01 T10101020  RH  093%=      5-min Rain = 0
KVA1 131045Z 22005KT M01/M02 A3015 RMK A01 T10101021  RH  093%=      5-min Rain = 0
KVA1 131046Z 22005KT M01/M02 A3014 RMK A01 T10101021  RH  093%=      5-min Rain = 0
KVA1 131047Z 21004KT M01/M02 A3014 RMK A01 T10101021  RH  093%=      5-min Rain = 0
KVA1 131048Z 21004KT M01/M02 A3014 RMK A01 T10101020  RH  093%=      5-min Rain = 0
KVA1 131049Z 21004KT M01/M02 A3014 RMK A01 T10111020  RH  093%=      5-min Rain = 0
KVA1 131050Z 21005KT M01/M02 A3014 RMK A01 T10101020  RH  093%=      5-min Rain = 0
KVA1 131051Z 21005KT M01/M02 A3014 RMK A01 T10101020  RH  093%=      5-min Rain = 0
KVA1 131052Z 21005KT M01/M02 A3014 RMK A01 T10111020  RH  093%=      5-min Rain = 0
KVA1 131053Z 20005KT M01/M02 A3014 RMK A01 T10111020  RH  093%=      5-min Rain = 0
KVA1 131054Z 20005KT M01/M02 A3014 RMK A01 T10111020  RH  093%=      5-min Rain = 0
KVA1 131055Z 20005KT M01/M02 A3014 RMK A01 T10111021  RH  093%=      5-min Rain = 0
KVA1 131056Z 19005KT M01/M02 A3014 RMK A01 T10111021  RH  093%=      5-min Rain = 0
KVA1 131057Z 20005KT M01/M02 A3014 RMK A01 T10111020  RH  093%=      5-min Rain = 0
KVA1 131058Z 20005KT M01/M02 A3014 RMK A01 T10111020  RH  093%=      5-min Rain = 0
KVA1 131059Z 20005KT M01/M02 A3014 RMK A01 T10111020  RH  093%=      5-min Rain = 0
KVA1 131100Z 20005KT M01/M02 A3014 RMK A01 T10111020  RH  093%=      5-min Rain = 0
KVA1 131101Z 19005KT M01/M02 A3014 RMK A01 T10111020  RH  093%=      5-min Rain = 0
KVA1 131102Z 19005KT M01/M02 A3014 RMK A01 T10111021  RH  093%=      5-min Rain = 0
KVA1 131103Z 19005KT M01/M02 A3014 RMK A01 T10111021  RH  093%=      5-min Rain = 0
KVA1 131104Z 18005KT M01/M02 A3014 RMK A01 T10111020  RH  093%=      5-min Rain = 0
KVA1 131105Z 18005KT M01/M02 A3014 RMK A01 T10121021  RH  093%=      5-min Rain = 0
KVA1 131106Z 17004KT M01/M02 A3014 RMK A01 T10131023  RH  093%=      5-min Rain = 0
KVA1 131107Z 16004KT M01/M02 A3014 RMK A01 T10141024  RH  093%=      5-min Rain = 0
KVA1 131108Z 15005KT M01/M02 A3014 RMK A01 T10141024  RH  093%=      5-min Rain = 0
KVA1 131109Z 15005KT M02/M02 A3014 RMK A01 T10151024  RH  094%=      5-min Rain = 0
KVA1 131110Z 14004KT M02/M02 A3014 RMK A01 T10151024  RH  094%=      5-min Rain = 0
KVA1 131111Z 15004KT M02/M02 A3014 RMK A01 T10151023  RH  094%=      5-min Rain = 0
KVA1 131112Z 16004KT M02/M02 A3014 RMK A01 T10151024  RH  094%=      5-min Rain = 0
KVA1 131113Z 17004KT M02/M02 A3014 RMK A01 T10151023  RH  094%=      5-min Rain = 0
KVA1 131114Z 18004KT M02/M02 A3014 RMK A01 T10151023  RH  095%=      5-min Rain = 0
KVA1 131115Z 18004KT M02/M02 A3014 RMK A01 T10151023  RH  095%=      5-min Rain = 0
KVA1 131116Z 19005KT M02/M02 A3014 RMK A01 T10151022  RH  095%=      5-min Rain = 0
KVA1 131117Z 19005KT M01/M02 A3014 RMK A01 T10141021  RH  095%=      5-min Rain = 0
KVA1 131118Z 19005KT M01/M02 A3014 RMK A01 T10141021  RH  095%=      5-min Rain = 0
KVA1 131119Z 19005KT M01/M02 A3014 RMK A01 T10131020  RH  095%=      5-min Rain = 0
KVA1 131120Z 19006KT M01/M02 A3014 RMK A01 T10131020  RH  095%=      5-min Rain = 0
KVA1 131121Z 19006KT M01/M02 A3014 RMK A01 T10131020  RH  095%=      5-min Rain = 0
KVA1 131122Z 19006KT M01/M02 A3015 RMK A01 T10131021  RH  094%=      5-min Rain = 0
KVA1 131123Z 19006KT M01/M02 A3015 RMK A01 T10131022  RH  094%=      5-min Rain = 0
KVA1 131124Z 19006KT M01/M02 A3015 RMK A01 T10131022  RH  094%=      5-min Rain = 0
KVA1 131125Z 19005KT M01/M02 A3015 RMK A01 T10141022  RH  094%=      5-min Rain = 0
KVA1 131126Z 20005KT M01/M02 A3015 RMK A01 T10141022  RH  094%=      5-min Rain = 0
KVA1 131127Z 20006KT M01/M02 A3015 RMK A01 T10131021  RH  094%=      5-min Rain = 0
KVA1 131128Z 20005KT M01/M02 A3015 RMK A01 T10131021  RH  094%=      5-min Rain = 0
KVA1 131129Z 21005KT M01/M02 A3015 RMK A01 T10131022  RH  094%=      5-min Rain = 0
KVA1 131130Z 21005KT M01/M02 A3015 RMK A01 T10141022  RH  094%=      5-min Rain = 0
KVA1 131131Z 21005KT M01/M02 A3015 RMK A01 T10141022  RH  094%=      5-min Rain = 0
KVA1 131132Z 21005KT M01/M02 A3015 RMK A01 T10141022  RH  094%=      5-min Rain = 0
KVA1 131133Z 21005KT M01/M02 A3015 RMK A01 T10141022  RH  094%=      5-min Rain = 0
KVA1 131134Z 22005KT M01/M02 A3015 RMK A01 T10141022  RH  094%=      5-min Rain = 0
KVA1 131135Z 22006KT M01/M02 A3015 RMK A01 T10141023  RH  094%=      5-min Rain = 0
KVA1 131136Z 22005KT M01/M02 A3015 RMK A01 T10141023  RH  094%=      5-min Rain = 0
KVA1 131137Z 23006KT M01/M02 A3015 RMK A01 T10141023  RH  094%=      5-min Rain = 0
KVA1 131138Z 23005KT M02/M02 A3015 RMK A01 T10151023  RH  094%=      5-min Rain = 0
KVA1 131139Z 23005KT M01/M02 A3015 RMK A01 T10141023  RH  094%=      5-min Rain = 0
KVA1 131140Z 23005KT M02/M02 A3015 RMK A01 T10151023  RH  094%=      5-min Rain = 0
KVA1 131141Z 23005KT M02/M02 A3015 RMK A01 T10151022  RH  094%=      5-min Rain = 0
KVA1 131142Z 23006KT M01/M02 A3015 RMK A01 T10141022  RH  094%=      5-min Rain = 0
KVA1 131143Z 22006KT M01/M02 A3015 RMK A01 T10141022  RH  094%=      5-min Rain = 0
KVA1 131144Z 23006KT M01/M02 A3015 RMK A01 T10141022  RH  094%=      5-min Rain = 0
KVA1 131145Z 23005KT M01/M02 A3014 RMK A01 T10141021  RH  095%=      5-min Rain = 0
KVA1 131146Z 23005KT M01/M02 A3014 RMK A01 T10141022  RH  094%=      5-min Rain = 0
KVA1 131147Z 23005KT M02/M02 A3014 RMK A01 T10151022  RH  094%=      5-min Rain = 0
KVA1 131148Z 24005KT M02/M02 A3014 RMK A01 T10151023  RH  094%=      5-min Rain = 0
KVA1 131149Z 24005KT M02/M02 A3014 RMK A01 T10151023  RH  095%=      5-min Rain = 0
KVA1 131150Z 24005KT M02/M02 A3014 RMK A01 T10151023  RH  095%=      5-min Rain = 0
KVA1 131151Z 24006KT M02/M02 A3014 RMK A01 T10151023  RH  095%=      5-min Rain = 0
KVA1 131152Z 24005KT M02/M02 A3014 RMK A01 T10151022  RH  095%=      5-min Rain = 0
KVA1 131153Z 24006KT M02/M02 A3014 RMK A01 T10151022  RH  095%=      5-min Rain = 0
KVA1 131154Z 24005KT M02/M02 A3015 RMK A01 T10151022  RH  095%=      5-min Rain = 0
KVA1 131155Z 24005KT M01/M02 A3015 RMK A01 T10141021  RH  095%=      5-min Rain = 0
KVA1 131156Z 25005KT M01/M02 A3015 RMK A01 T10141022  RH  095%=      5-min Rain = 0
KVA1 131157Z 25005KT M01/M02 A3015 RMK A01 T10141022  RH  095%=      5-min Rain = 0
KVA1 131158Z 25005KT M01/M02 A3015 RMK A01 T10141021  RH  095%=      5-min Rain = 0
KVA1 131159Z 25005KT M01/M02 A3015 RMK A01 T10141022  RH  095%=      5-min Rain = 0
KVA1 131200Z 25006KT M02/M02 A3015 RMK A01 T10151022  RH  095%=      5-min Rain = 0
KVA1 131201Z 25006KT M01/M02 A3015 RMK A01 T10141022  RH  095%=      5-min Rain = 0
KVA1 131202Z 25006KT M02/M02 A3015 RMK A01 T10151022  RH  095%=      5-min Rain = 0
KVA1 131203Z 25006KT M02/M02 A3015 RMK A01 T10151022  RH  095%=      5-min Rain = 0
KVA1 131204Z 25006KT M02/M02 A3015 RMK A01 T10151022  RH  095%=      5-min Rain = 0
KVA1 131205Z 25006KT M02/M02 A3015 RMK A01 T10151022  RH  095%=      5-min Rain = 0
KVA1 131206Z 25006KT M02/M02 A3015 RMK A01 T10151022  RH  095%=      5-min Rain = 0
KVA1 131207Z 25006KT M02/M02 A3015 RMK A01 T10151022  RH  095%=      5-min Rain = 0
KVA1 131208Z 25006KT M01/M02 A3015 RMK A01 T10141021  RH  095%=      5-min Rain = 0
KVA1 131209Z 25006KT M01/M02 A3015 RMK A01 T10141021  RH  095%=      5-min Rain = 0
KVA1 131210Z 25006KT M01/M02 A3015 RMK A01 T10141021  RH  095%=      5-min Rain = 0
KVA1 131211Z 26006KT M01/M02 A3015 RMK A01 T10141021  RH  095%=      5-min Rain = 0
KVA1 131212Z 26006KT M01/M02 A3015 RMK A01 T10131020  RH  095%=      5-min Rain = 0
KVA1 131213Z 26005KT M01/M02 A3015 RMK A01 T10131021  RH  095%=      5-min Rain = 0
KVA1 131214Z 26006KT M01/M02 A3016 RMK A01 T10131021  RH  095%=      5-min Rain = 0
KVA1 131215Z 26006KT M01/M02 A3016 RMK A01 T10131021  RH  095%=      5-min Rain = 0
KVA1 131216Z 26006KT M01/M02 A3016 RMK A01 T10131020  RH  095%=      5-min Rain = 0
KVA1 131217Z 26006KT M01/M02 A3016 RMK A01 T10131021  RH  095%=      5-min Rain = 0
KVA1 131218Z 26006KT M01/M02 A3016 RMK A01 T10131020  RH  095%=      5-min Rain = 0
KVA1 131219Z 26006KT M01/M02 A3016 RMK A01 T10131020  RH  095%=      5-min Rain = 0
KVA1 131220Z 25006KT M01/M02 A3016 RMK A01 T10131020  RH  095%=      5-min Rain = 0
KVA1 131221Z 25007KT M01/M02 A3016 RMK A01 T10121020  RH  095%=      5-min Rain = 0
KVA1 131222Z 25005KT M01/M02 A3016 RMK A01 T10111019  RH  095%=      5-min Rain = 0
KVA1 131223Z 25005KT M01/M02 A3016 RMK A01 T10101018  RH  095%=      5-min Rain = 0
KVA1 131224Z 25005KT M01/M02 A3016 RMK A01 T10101018  RH  095%=      5-min Rain = 0
KVA1 131225Z 25005KT M01/M02 A3016 RMK A01 T10101018  RH  094%=      5-min Rain = 0
KVA1 131226Z 25004KT M01/M02 A3016 RMK A01 T10101019  RH  094%=      5-min Rain = 0
KVA1 131227Z 24005KT M01/M02 A3016 RMK A01 T10111019  RH  094%=      5-min Rain = 0
KVA1 131228Z 24005KT M01/M02 A3016 RMK A01 T10111019  RH  094%=      5-min Rain = 0
KVA1 131229Z 24005KT M01/M02 A3016 RMK A01 T10111019  RH  094%=      5-min Rain = 0
KVA1 131230Z 24005KT M01/M02 A3016 RMK A01 T10111019  RH  094%=      5-min Rain = 0
KVA1 131231Z 24005KT M01/M02 A3016 RMK A01 T10111019  RH  094%=      5-min Rain = 0
KVA1 131232Z 24005KT M01/M02 A3016 RMK A01 T10111020  RH  094%=      5-min Rain = 0
KVA1 131233Z 25005KT M01/M02 A3016 RMK A01 T10111020  RH  094%=      5-min Rain = 0
KVA1 131234Z 25004KT M01/M02 A3016 RMK A01 T10121020  RH  094%=      5-min Rain = 0
KVA1 131235Z 25005KT M01/M02 A3016 RMK A01 T10121021  RH  094%=      5-min Rain = 0
KVA1 131236Z 24005KT M01/M02 A3016 RMK A01 T10121021  RH  094%=      5-min Rain = 0
KVA1 131237Z 24005KT M01/M02 A3016 RMK A01 T10131021  RH  094%=      5-min Rain = 0
KVA1 131238Z 24005KT M01/M02 A3016 RMK A01 T10131021  RH  094%=      5-min Rain = 0
KVA1 131239Z 24005KT M01/M02 A3016 RMK A01 T10131021  RH  094%=      5-min Rain = 0
KVA1 131240Z 24005KT M01/M02 A3016 RMK A01 T10131021  RH  094%=      5-min Rain = 0
KVA1 131241Z 24005KT M01/M02 A3016 RMK A01 T10131021  RH  094%=      5-min Rain = 0
KVA1 131242Z 24005KT M01/M02 A3016 RMK A01 T10131021  RH  094%=      5-min Rain = 0
KVA1 131243Z 24005KT M01/M02 A3016 RMK A01 T10131021  RH  094%=      5-min Rain = 0
KVA1 131244Z 24005KT M01/M02 A3016 RMK A01 T10131021  RH  094%=      5-min Rain = 0
KVA1 131245Z 24005KT M01/M02 A3016 RMK A01 T10131021  RH  094%=      5-min Rain = 0
KVA1 131246Z 24005KT M01/M02 A3016 RMK A01 T10141022  RH  094%=      5-min Rain = 0
KVA1 131247Z 24005KT M01/M02 A3016 RMK A01 T10141022  RH  094%=      5-min Rain = 0
KVA1 131248Z 24005KT M01/M02 A3016 RMK A01 T10131021  RH  094%=      5-min Rain = 0
KVA1 131249Z 24005KT M01/M02 A3016 RMK A01 T10141021  RH  094%=      5-min Rain = 0
KVA1 131250Z 24005KT M01/M02 A3016 RMK A01 T10141021  RH  094%=      5-min Rain = 0
KVA1 131251Z 24005KT M01/M02 A3016 RMK A01 T10141022  RH  094%=      5-min Rain = 0
KVA1 131252Z 24005KT M01/M02 A3016 RMK A01 T10141022  RH  094%=      5-min Rain = 0
KVA1 131253Z 24005KT M01/M02 A3016 RMK A01 T10141022  RH  094%=      5-min Rain = 0
KVA1 131254Z 23005KT M01/M02 A3016 RMK A01 T10141022  RH  094%=      5-min Rain = 0
KVA1 131255Z 24005KT M01/M02 A3016 RMK A01 T10141022  RH  094%=      5-min Rain = 0
KVA1 131256Z 24005KT M01/M02 A3016 RMK A01 T10141022  RH  094%=      5-min Rain = 0
KVA1 131257Z 24006KT M01/M02 A3016 RMK A01 T10141022  RH  094%=      5-min Rain = 0
KVA1 131258Z 24006KT M01/M02 A3016 RMK A01 T10141022  RH  094%=      5-min Rain = 0
KVA1 131259Z 24005KT M01/M02 A3016 RMK A01 T10141022  RH  094%=      5-min Rain = 0
KVA1 131300Z 24006KT M01/M02 A3016 RMK A01 T10141021  RH  094%=      5-min Rain = 0
KVA1 131301Z 24006KT M01/M02 A3016 RMK A01 T10131021  RH  094%=      5-min Rain = 0
KVA1 131302Z 24005KT M01/M02 A3016 RMK A01 T10131021  RH  094%=      5-min Rain = 0
KVA1 131303Z 23006KT M01/M02 A3017 RMK A01 T10131021  RH  094%=      5-min Rain = 0
KVA1 131304Z 23006KT M01/M02 A3017 RMK A01 T10131022  RH  094%=      5-min Rain = 0
KVA1 131305Z 23007KT M01/M02 A3017 RMK A01 T10131021  RH  094%=      5-min Rain = 0
KVA1 131306Z 23006KT M01/M02 A3017 RMK A01 T10131021  RH  094%=      5-min Rain = 0
KVA1 131307Z 23006KT M01/M02 A3017 RMK A01 T10131022  RH  094%=      5-min Rain = 0
KVA1 131308Z 22006KT M01/M02 A3017 RMK A01 T10131022  RH  094%=      5-min Rain = 0
KVA1 131309Z 22006KT M01/M02 A3017 RMK A01 T10121021  RH  094%=      5-min Rain = 0
KVA1 131310Z 23005KT M01/M02 A3017 RMK A01 T10121021  RH  093%=      5-min Rain = 0
KVA1 131311Z 22006KT M01/M02 A3017 RMK A01 T10111021  RH  093%=      5-min Rain = 0
KVA1 131312Z 22007KT M01/M02 A3017 RMK A01 T10111021  RH  093%=      5-min Rain = 0
KVA1 131313Z 22007KT M01/M02 A3017 RMK A01 T10111022  RH  093%=      5-min Rain = 0
KVA1 131314Z 23007KT M01/M02 A3017 RMK A01 T10111022  RH  093%=      5-min Rain = 0
KVA1 131315Z 23008KT M01/M02 A3017 RMK A01 T10111022  RH  092%=      5-min Rain = 0
KVA1 131316Z 23006KT M01/M02 A3017 RMK A01 T10111022  RH  092%=      5-min Rain = 0
KVA1 131317Z 23007KT M01/M02 A3017 RMK A01 T10111022  RH  092%=      5-min Rain = 0
KVA1 131318Z 23006KT M01/M02 A3017 RMK A01 T10121023  RH  092%=      5-min Rain = 0
KVA1 131319Z 23006KT M01/M02 A3017 RMK A01 T10121023  RH  092%=      5-min Rain = 0
KVA1 131320Z 23006KT M01/M02 A3017 RMK A01 T10121023  RH  092%=      5-min Rain = 0
KVA1 131321Z 22007KT M01/M02 A3017 RMK A01 T10131024  RH  092%=      5-min Rain = 0
KVA1 131322Z 23007KT M01/M02 A3017 RMK A01 T10131023  RH  092%=      5-min Rain = 0
KVA1 131323Z 23006KT M01/M02 A3017 RMK A01 T10131024  RH  092%=      5-min Rain = 0
KVA1 131324Z 23006KT M01/M02 A3017 RMK A01 T10131024  RH  092%=      5-min Rain = 0
KVA1 131325Z 23005KT M01/M02 A3017 RMK A01 T10131024  RH  092%=      5-min Rain = 0
KVA1 131326Z 24007KT M01/M02 A3017 RMK A01 T10131024  RH  092%=      5-min Rain = 0
KVA1 131327Z 23006KT M01/M02 A3017 RMK A01 T10131024  RH  092%=      5-min Rain = 0
KVA1 131328Z 23007KT M01/M02 A3018 RMK A01 T10131024  RH  092%=      5-min Rain = 0
KVA1 131329Z 23006KT M01/M02 A3018 RMK A01 T10131024  RH  093%=      5-min Rain = 0
KVA1 131330Z 23007KT M01/M02 A3018 RMK A01 T10141024  RH  092%=      5-min Rain = 0
KVA1 131331Z 23006KT M01/M02 A3018 RMK A01 T10131024  RH  093%=      5-min Rain = 0
KVA1 131332Z 24007KT M01/M02 A3018 RMK A01 T10141024  RH  093%=      5-min Rain = 0
KVA1 131333Z 24007KT M01/M02 A3018 RMK A01 T10141024  RH  093%=      5-min Rain = 0
KVA1 131334Z 23006KT M01/M02 A3018 RMK A01 T10141024  RH  093%=      5-min Rain = 0
KVA1 131335Z 23006KT M01/M02 A3018 RMK A01 T10141024  RH  092%=      5-min Rain = 0
KVA1 131336Z 23007KT M01/M02 A3018 RMK A01 T10141024  RH  092%=      5-min Rain = 0
KVA1 131337Z 23006KT M01/M02 A3018 RMK A01 T10141024  RH  093%=      5-min Rain = 0
KVA1 131338Z 23007KT M01/M02 A3018 RMK A01 T10141024  RH  093%=      5-min Rain = 0
KVA1 131339Z 23008KT M01/M02 A3018 RMK A01 T10131024  RH  093%=      5-min Rain = 0
KVA1 131340Z 23006KT M01/M02 A3018 RMK A01 T10131024  RH  092%=      5-min Rain = 0
KVA1 131341Z 23006KT M01/M03 A3018 RMK A01 T10141025  RH  092%=      5-min Rain = 0
KVA1 131342Z 23007KT M01/M03 A3018 RMK A01 T10131025  RH  092%=      5-min Rain = 0
KVA1 131343Z 23006KT M01/M02 A3018 RMK A01 T10131024  RH  092%=      5-min Rain = 0
KVA1 131344Z 23006KT M01/M02 A3018 RMK A01 T10131024  RH  092%=      5-min Rain = 0
KVA1 131345Z 23006KT M01/M02 A3019 RMK A01 T10131024  RH  092%=      5-min Rain = 0
KVA1 131346Z 24006KT M01/M02 A3019 RMK A01 T10131024  RH  092%=      5-min Rain = 0
KVA1 131347Z 24006KT M01/M02 A3019 RMK A01 T10131024  RH  092%=      5-min Rain = 0
KVA1 131348Z 24006KT M01/M03 A3019 RMK A01 T10131025  RH  092%=      5-min Rain = 0
KVA1 131349Z 24006KT M01/M03 A3019 RMK A01 T10131025  RH  092%=      5-min Rain = 0
KVA1 131350Z 23006KT M01/M03 A3019 RMK A01 T10141025  RH  092%=      5-min Rain = 0
KVA1 131351Z 24006KT M01/M03 A3019 RMK A01 T10141025  RH  092%=      5-min Rain = 0
KVA1 131352Z 23006KT M01/M03 A3019 RMK A01 T10141025  RH  092%=      5-min Rain = 0
KVA1 131353Z 23005KT M01/M03 A3019 RMK A01 T10141025  RH  092%=      5-min Rain = 0
KVA1 131354Z 24005KT M01/M03 A3019 RMK A01 T10141025  RH  092%=      5-min Rain = 0
KVA1 131355Z 23005KT M01/M03 A3019 RMK A01 T10131025  RH  092%=      5-min Rain = 0
KVA1 131356Z 24005KT M01/M03 A3019 RMK A01 T10131025  RH  092%=      5-min Rain = 0
KVA1 131357Z 23005KT M01/M02 A3019 RMK A01 T10131024  RH  092%=      5-min Rain = 0
KVA1 131358Z 23005KT M01/M02 A3019 RMK A01 T10121024  RH  092%=      5-min Rain = 0
KVA1 131359Z 23005KT M01/M02 A3019 RMK A01 T10121024  RH  092%=      5-min Rain = 0
KVA1 131400Z 23006KT M01/M02 A3019 RMK A01 T10121024  RH  092%=      5-min Rain = 0
KVA1 131401Z 22007KT M01/M02 A3019 RMK A01 T10121024  RH  092%=      5-min Rain = 0
KVA1 131402Z 22007KT M01/M02 A3019 RMK A01 T10111023  RH  092%=      5-min Rain = 0
KVA1 131403Z 22007KT M01/M02 A3019 RMK A01 T10101022  RH  091%=      5-min Rain = 0
KVA1 131404Z 21006KT M01/M02 A3019 RMK A01 T10091022  RH  091%=      5-min Rain = 0
KVA1 131405Z 22006KT M01/M02 A3019 RMK A01 T10091022  RH  091%=      5-min Rain = 0
KVA1 131406Z 22006KT M01/M02 A3019 RMK A01 T10081022  RH  090%=      5-min Rain = 0
KVA1 131407Z 22006KT M01/M02 A302 RMK A01 T10081022  RH  090%=      5-min Rain = 0
KVA1 131408Z 22006KT M01/M02 A302 RMK A01 T10071022  RH  090%=      5-min Rain = 0
KVA1 131409Z 22006KT M01/M02 A302 RMK A01 T10071022  RH  090%=      5-min Rain = 0
KVA1 131410Z 22006KT M01/M02 A302 RMK A01 T10061021  RH  090%=      5-min Rain = 0
KVA1 131411Z 23007KT M01/M02 A302 RMK A01 T10051021  RH  089%=      5-min Rain = 0
KVA1 131412Z 22007KT M01/M02 A302 RMK A01 T10051021  RH  089%=      5-min Rain = 0
KVA1 131413Z 23006KT M00/M02 A302 RMK A01 T10041021  RH  089%=      5-min Rain = 0
KVA1 131414Z 23005KT M00/M02 A302 RMK A01 T10041021  RH  088%=      5-min Rain = 0
KVA1 131415Z 22005KT M00/M02 A302 RMK A01 T10041021  RH  088%=      5-min Rain = 0
KVA1 131416Z 22006KT M00/M02 A302 RMK A01 T10041021  RH  088%=      5-min Rain = 0
KVA1 131417Z 23006KT M00/M02 A302 RMK A01 T10041021  RH  088%=      5-min Rain = 0
KVA1 131418Z 23004KT M00/M02 A302 RMK A01 T10041021  RH  088%=      5-min Rain = 0
KVA1 131419Z 23005KT M00/M02 A302 RMK A01 T10041020  RH  088%=      5-min Rain = 0
KVA1 131420Z 23005KT M00/M02 A302 RMK A01 T10031020  RH  089%=      5-min Rain = 0
KVA1 131421Z 22005KT M00/M02 A302 RMK A01 T10021019  RH  089%=      5-min Rain = 0
KVA1 131422Z 23004KT M00/M02 A302 RMK A01 T10021019  RH  088%=      5-min Rain = 0
KVA1 131423Z 21004KT M00/M02 A302 RMK A01 T10021019  RH  088%=      5-min Rain = 0
KVA1 131424Z 21003KT M00/M02 A302 RMK A01 T10011018  RH  088%=      5-min Rain = 0
KVA1 131425Z 21003KT M00/M02 A302 RMK A01 T10011018  RH  088%=      5-min Rain = 0
KVA1 131426Z 20004KT 00/02 A302 RMK A01 T00-00-17  RH  088%=      5-min Rain = 0
KVA1 131427Z 20004KT 00/M02 A302 RMK A01 T00011017  RH  088%=      5-min Rain = 0
KVA1 131428Z 21004KT 00/M02 A302 RMK A01 T00011017  RH  087%=      5-min Rain = 0
KVA1 131429Z 21004KT 00/M02 A302 RMK A01 T00021018  RH  087%=      5-min Rain = 0
KVA1 131430Z 21004KT 00/M02 A302 RMK A01 T00021018  RH  087%=      5-min Rain = 0
KVA1 131431Z 21004KT 00/M02 A302 RMK A01 T00031017  RH  086%=      5-min Rain = 0
KVA1 131432Z 22003KT 00/M02 A302 RMK A01 T00031017  RH  086%=      5-min Rain = 0
KVA1 131433Z 22004KT 00/M02 A302 RMK A01 T00041017  RH  086%=      5-min Rain = 0
KVA1 131434Z 21004KT 00/M02 A302 RMK A01 T00041016  RH  086%=      5-min Rain = 0
KVA1 131435Z 21003KT 01/M02 A302 RMK A01 T00051016  RH  086%=      5-min Rain = 0
KVA1 131436Z 21002KT 01/M02 A302 RMK A01 T00061016  RH  085%=      5-min Rain = 0
KVA1 131437Z 19002KT 01/M02 A302 RMK A01 T00071015  RH  085%=      5-min Rain = 0
KVA1 131438Z 20001KT 01/M01 A302 RMK A01 T00091014  RH  085%=      5-min Rain = 0
KVA1 131439Z 17001KT 01/M01 A302 RMK A01 T00111013  RH  084%=      5-min Rain = 0
KVA1 131440Z 20002KT 01/M01 A302 RMK A01 T00121013  RH  083%=      5-min Rain = 0
KVA1 131441Z 17002KT 01/M01 A302 RMK A01 T00131014  RH  082%=      5-min Rain = 0
KVA1 131442Z 17001KT 01/M02 A302 RMK A01 T00131016  RH  081%=      5-min Rain = 0
KVA1 131443Z 19001KT 01/M02 A302 RMK A01 T00141016  RH  081%=      5-min Rain = 0
KVA1 131444Z 20002KT 02/M02 A302 RMK A01 T00151015  RH  080%=      5-min Rain = 0
KVA1 131445Z 23002KT 02/M02 A302 RMK A01 T00151016  RH  080%=      5-min Rain = 0
KVA1 131446Z 22003KT 02/M02 A302 RMK A01 T00151016  RH  080%=      5-min Rain = 0
KVA1 131447Z 22003KT 01/M02 A302 RMK A01 T00141016  RH  080%=      5-min Rain = 0
KVA1 131448Z 22003KT 01/M02 A302 RMK A01 T00141016  RH  081%=      5-min Rain = 0
KVA1 131449Z 22003KT 01/M02 A302 RMK A01 T00141015  RH  081%=      5-min Rain = 0
KVA1 131450Z 22003KT 01/M02 A302 RMK A01 T00141015  RH  081%=      5-min Rain = 0
KVA1 131451Z 22004KT 02/M02 A3021 RMK A01 T00151015  RH  081%=      5-min Rain = 0
KVA1 131452Z 23004KT 02/M01 A3021 RMK A01 T00151014  RH  081%=      5-min Rain = 0
KVA1 131453Z 23005KT 02/M01 A3021 RMK A01 T00151013  RH  081%=      5-min Rain = 0
KVA1 131454Z 23005KT 02/M01 A3021 RMK A01 T00151014  RH  081%=      5-min Rain = 0
KVA1 131455Z 23006KT 02/M01 A3021 RMK A01 T00151014  RH  081%=      5-min Rain = 0
KVA1 131456Z 23005KT 02/M01 A3021 RMK A01 T00161014  RH  080%=      5-min Rain = 0
KVA1 131457Z 22005KT 02/M01 A3021 RMK A01 T00161014  RH  080%=      5-min Rain = 0
KVA1 131458Z 23006KT 02/M01 A3021 RMK A01 T00171013  RH  080%=      5-min Rain = 0
KVA1 131459Z 23007KT 02/M01 A3021 RMK A01 T00181013  RH  080%=      5-min Rain = 0
KVA1 131500Z 23007KT 02/M01 A3021 RMK A01 T00181014  RH  080%=      5-min Rain = 0
KVA1 131501Z 23005KT 02/M01 A3021 RMK A01 T00181013  RH  080%=      5-min Rain = 0
KVA1 131502Z 23005KT 02/M01 A3021 RMK A01 T00191012  RH  080%=      5-min Rain = 0
KVA1 131503Z 23006KT 02/M01 A3021 RMK A01 T00201012  RH  079%=      5-min Rain = 0
KVA1 131504Z 22006KT 02/M01 A3021 RMK A01 T00201013  RH  079%=      5-min Rain = 0
KVA1 131505Z 22006KT 02/M01 A3021 RMK A01 T00201013  RH  079%=      5-min Rain = 0
KVA1 131506Z 22006KT 02/M01 A3021 RMK A01 T00201014  RH  078%=      5-min Rain = 0
KVA1 131507Z 22007KT 02/M01 A3021 RMK A01 T00211013  RH  078%=      5-min Rain = 0
KVA1 131508Z 22005KT 02/M01 A3021 RMK A01 T00211014  RH  078%=      5-min Rain = 0
KVA1 131509Z 23006KT 02/M01 A3021 RMK A01 T00211013  RH  078%=      5-min Rain = 0
KVA1 131510Z 22006KT 02/M01 A3021 RMK A01 T00221012  RH  078%=      5-min Rain = 0
KVA1 131511Z 22006KT 02/M01 A3021 RMK A01 T00221013  RH  077%=      5-min Rain = 0
KVA1 131512Z 22007KT 02/M01 A3021 RMK A01 T00221014  RH  077%=      5-min Rain = 0
KVA1 131513Z 22006KT 02/M01 A3021 RMK A01 T00221014  RH  077%=      5-min Rain = 0
KVA1 131514Z 22007KT 02/M01 A3021 RMK A01 T00231014  RH  077%=      5-min Rain = 0
KVA1 131515Z 21006KT 02/M02 A3021 RMK A01 T00231015  RH  076%=      5-min Rain = 0
KVA1 131516Z 22006KT 02/M02 A3021 RMK A01 T00231015  RH  076%=      5-min Rain = 0
KVA1 131517Z 22005KT 02/M01 A3021 RMK A01 T00231014  RH  076%=      5-min Rain = 0
KVA1 131518Z 22005KT 02/M01 A3021 RMK A01 T00241013  RH  077%=      5-min Rain = 0
KVA1 131519Z 22005KT 02/M01 A3021 RMK A01 T00241013  RH  076%=      5-min Rain = 0
KVA1 131520Z 22006KT 03/M01 A3021 RMK A01 T00251012  RH  077%=      5-min Rain = 0
KVA1 131521Z 21006KT 03/M01 A3021 RMK A01 T00251013  RH  076%=      5-min Rain = 0
KVA1 131522Z 22005KT 03/M01 A3021 RMK A01 T00261014  RH  075%=      5-min Rain = 0
KVA1 131523Z 22006KT 03/M01 A3021 RMK A01 T00261014  RH  075%=      5-min Rain = 0
KVA1 131524Z 23005KT 03/M01 A3022 RMK A01 T00261014  RH  075%=      5-min Rain = 0
KVA1 131525Z 22005KT 03/M01 A3022 RMK A01 T00261013  RH  075%=      5-min Rain = 0
KVA1 131526Z 22006KT 03/M01 A3022 RMK A01 T00261014  RH  075%=      5-min Rain = 0
KVA1 131527Z 22006KT 03/M01 A3022 RMK A01 T00271014  RH  075%=      5-min Rain = 0
KVA1 131528Z 22004KT 03/M01 A3022 RMK A01 T00271013  RH  075%=      5-min Rain = 0
KVA1 131529Z 22005KT 03/M01 A3022 RMK A01 T00281011  RH  075%=      5-min Rain = 0
KVA1 131530Z 22005KT 03/M01 A3022 RMK A01 T00291011  RH  075%=      5-min Rain = 0
KVA1 131531Z 22005KT 03/M01 A3022 RMK A01 T00301010  RH  075%=      5-min Rain = 0
KVA1 131532Z 22005KT 03/M01 A3022 RMK A01 T00301010  RH  075%=      5-min Rain = 0
KVA1 131533Z 22006KT 03/M01 A3022 RMK A01 T00311011  RH  074%=      5-min Rain = 0
KVA1 131534Z 21006KT 03/M01 A3022 RMK A01 T00321012  RH  073%=      5-min Rain = 0
KVA1 131535Z 21006KT 03/M01 A3022 RMK A01 T00321012  RH  073%=      5-min Rain = 0
KVA1 131536Z 21004KT 03/M01 A3022 RMK A01 T00321013  RH  072%=      5-min Rain = 0
KVA1 131537Z 22005KT 03/M01 A3022 RMK A01 T00331011  RH  073%=      5-min Rain = 0
KVA1 131538Z 21006KT 03/M01 A3022 RMK A01 T00341011  RH  072%=      5-min Rain = 0
KVA1 131539Z 21005KT 03/M01 A3022 RMK A01 T00341011  RH  072%=      5-min Rain = 0
KVA1 131540Z 21005KT 03/M01 A3022 RMK A01 T00341010  RH  073%=      5-min Rain = 0
KVA1 131541Z 23005KT 03/M01 A3022 RMK A01 T00341008  RH  073%=      5-min Rain = 0
KVA1 131542Z 23006KT 04/M01 A3022 RMK A01 T00351010  RH  073%=      5-min Rain = 0
KVA1 131543Z 22004KT 04/M01 A3022 RMK A01 T00351009  RH  073%=      5-min Rain = 0
KVA1 131544Z 21004KT 04/M01 A3022 RMK A01 T00361009  RH  073%=      5-min Rain = 0
KVA1 131545Z 22005KT 04/M01 A3022 RMK A01 T00361010  RH  072%=      5-min Rain = 0
KVA1 131546Z 21004KT 04/M01 A3022 RMK A01 T00361010  RH  072%=      5-min Rain = 0
KVA1 131547Z 21004KT 04/M01 A3022 RMK A01 T00361009  RH  072%=      5-min Rain = 0
KVA1 131548Z 21004KT 04/M01 A3022 RMK A01 T00361010  RH  072%=      5-min Rain = 0
KVA1 131549Z 23003KT 04/M01 A3022 RMK A01 T00371009  RH  072%=      5-min Rain = 0
KVA1 131550Z 24004KT 04/M01 A3022 RMK A01 T00381007  RH  073%=      5-min Rain = 0
KVA1 131551Z 21005KT 04/M01 A3022 RMK A01 T00391007  RH  072%=      5-min Rain = 0
KVA1 131552Z 21004KT 04/M01 A3022 RMK A01 T00411007  RH  071%=      5-min Rain = 0
KVA1 131553Z 22004KT 04/M01 A3022 RMK A01 T00411008  RH  070%=      5-min Rain = 0
KVA1 131554Z 21005KT 04/M01 A3022 RMK A01 T00411009  RH  070%=      5-min Rain = 0
KVA1 131555Z 21005KT 04/M01 A3022 RMK A01 T00421009  RH  069%=      5-min Rain = 0
KVA1 131556Z 20003KT 04/M01 A3022 RMK A01 T00421009  RH  069%=      5-min Rain = 0
KVA1 131557Z 21005KT 04/M01 A3022 RMK A01 T00441005  RH  071%=      5-min Rain = 0
KVA1 131558Z 22004KT 04/M01 A3022 RMK A01 T00441007  RH  069%=      5-min Rain = 0
KVA1 131559Z 22004KT 05/M00 A3022 RMK A01 T00461004  RH  070%=      5-min Rain = 0
KVA1 131600Z 22004KT 05/M00 A3022 RMK A01 T00481004  RH  069%=      5-min Rain = 0
KVA1 131601Z 22006KT 05/M01 A3022 RMK A01 T00481005  RH  068%=      5-min Rain = 0
KVA1 131602Z 20006KT 05/M01 A3022 RMK A01 T00491005  RH  068%=      5-min Rain = 0
KVA1 131603Z 20005KT 05/M01 A3022 RMK A01 T00491006  RH  067%=      5-min Rain = 0
KVA1 131604Z 22004KT 05/M01 A3022 RMK A01 T00501007  RH  067%=      5-min Rain = 0
KVA1 131605Z 20005KT 05/M01 A3022 RMK A01 T00511006  RH  067%=      5-min Rain = 0
KVA1 131606Z 21006KT 05/M01 A3022 RMK A01 T00521007  RH  066%=      5-min Rain = 0
KVA1 131607Z 19004KT 05/M01 A3022 RMK A01 T00521008  RH  065%=      5-min Rain = 0
KVA1 131608Z 20005KT 05/M00 A3022 RMK A01 T00541003  RH  067%=      5-min Rain = 0
KVA1 131609Z 20006KT 06/M00 A3022 RMK A01 T00561002  RH  066%=      5-min Rain = 0
KVA1 131610Z 21006KT 06/M01 A3022 RMK A01 T00561005  RH  064%=      5-min Rain = 0
KVA1 131611Z 20005KT 06/M00 A3022 RMK A01 T00571004  RH  065%=      5-min Rain = 0
KVA1 131612Z 20007KT 06/M01 A3022 RMK A01 T00571005  RH  064%=      5-min Rain = 0
KVA1 131613Z 19006KT 06/M01 A3022 RMK A01 T00571005  RH  064%=      5-min Rain = 0
KVA1 131614Z 19006KT 06/M01 A3022 RMK A01 T00581005  RH  064%=      5-min Rain = 0
KVA1 131615Z 20005KT 06/M01 A3022 RMK A01 T00571010  RH  062%=      5-min Rain = 0
KVA1 131616Z 19006KT 06/M01 A3022 RMK A01 T00561007  RH  064%=      5-min Rain = 0
KVA1 131617Z 18007KT 06/M01 A3022 RMK A01 T00571007  RH  063%=      5-min Rain = 0
KVA1 131618Z 20006KT 06/M01 A3022 RMK A01 T00581006  RH  063%=      5-min Rain = 0
KVA1 131619Z 20006KT 06/M01 A3022 RMK A01 T00581007  RH  063%=      5-min Rain = 0
KVA1 131620Z 21006KT 06/M01 A3022 RMK A01 T00591006  RH  063%=      5-min Rain = 0
KVA1 131621Z 20008KT 06/M01 A3022 RMK A01 T00591005  RH  063%=      5-min Rain = 0
KVA1 131622Z 20007KT 06/M01 A3022 RMK A01 T00601007  RH  062%=      5-min Rain = 0
KVA1 131623Z 21007KT 06/M01 A3022 RMK A01 T00601006  RH  063%=      5-min Rain = 0
KVA1 131624Z 20006KT 06/M01 A3022 RMK A01 T00601006  RH  062%=      5-min Rain = 0
KVA1 131625Z 21007KT 06/M01 A3022 RMK A01 T00601006  RH  062%=      5-min Rain = 0
KVA1 131626Z 20006KT 06/M00 A3022 RMK A01 T00621004  RH  062%=      5-min Rain = 0
KVA1 131627Z 20006KT 06/M01 A3022 RMK A01 T00631006  RH  061%=      5-min Rain = 0
KVA1 131628Z 20008KT 06/M01 A3022 RMK A01 T00631007  RH  061%=      5-min Rain = 0
KVA1 131629Z 19008KT 06/M01 A3022 RMK A01 T00631008  RH  060%=      5-min Rain = 0
KVA1 131630Z 20009KT 06/M01 A3022 RMK A01 T00631007  RH  061%=      5-min Rain = 0
KVA1 131631Z 20009KT 06/M01 A3022 RMK A01 T00631010  RH  059%=      5-min Rain = 0
KVA1 131632Z 19007KT 06/M01 A3022 RMK A01 T00631009  RH  060%=      5-min Rain = 0
KVA1 131633Z 19008KT 06/M01 A3022 RMK A01 T00631009  RH  060%=      5-min Rain = 0
KVA1 131634Z 20007KT 06/M01 A3022 RMK A01 T00641007  RH  061%=      5-min Rain = 0
KVA1 131635Z 20008KT 07/M01 A3022 RMK A01 T00651008  RH  060%=      5-min Rain = 0
KVA1 131636Z 18009KT 07/M01 A3022 RMK A01 T00651008  RH  060%=      5-min Rain = 0
KVA1 131637Z 18008KT 06/M01 A3022 RMK A01 T00641010  RH  059%=      5-min Rain = 0
KVA1 131638Z 18007KT 07/M01 A3022 RMK A01 T00651007  RH  060%=      5-min Rain = 0
KVA1 131639Z 19007KT 07/M01 A3022 RMK A01 T00661006  RH  060%=      5-min Rain = 0
KVA1 131640Z 19008KT 07/M00 A3022 RMK A01 T00671003  RH  061%=      5-min Rain = 0
KVA1 131641Z 19006KT 07/M01 A3022 RMK A01 T00681006  RH  059%=      5-min Rain = 0
KVA1 131642Z 20006KT 07/M00 A3022 RMK A01 T00681002  RH  061%=      5-min Rain = 0
KVA1 131643Z 20007KT 07/00 A3022 RMK A01 T00700000  RH  061%=      5-min Rain = 0
KVA1 131644Z 19008KT 07/00 A3022 RMK A01 T00720000  RH  060%=      5-min Rain = 0
KVA1 131645Z 18009KT 07/M00 A3022 RMK A01 T00721004  RH  059%=      5-min Rain = 0
KVA1 131646Z 18009KT 07/M01 A3022 RMK A01 T00711005  RH  058%=      5-min Rain = 0
KVA1 131647Z 18010KT 07/M00 A3022 RMK A01 T00711004  RH  059%=      5-min Rain = 0
KVA1 131648Z 17010KT 07/M01 A3022 RMK A01 T00711007  RH  057%=      5-min Rain = 0
KVA1 131649Z 17008KT 07/M01 A3022 RMK A01 T00711006  RH  058%=      5-min Rain = 0
KVA1 131650Z 17008KT 07/M00 A3022 RMK A01 T00721004  RH  058%=      5-min Rain = 0
KVA1 131651Z 19008KT 07/M00 A3022 RMK A01 T00731003  RH  058%=      5-min Rain = 0
KVA1 131652Z 19008KT 07/M00 A3022 RMK A01 T00741001  RH  059%=      5-min Rain = 0
KVA1 131653Z 20010KT 08/M00 A3022 RMK A01 T00751002  RH  058%=      5-min Rain = 0
KVA1 131654Z 19007KT 08/M00 A3022 RMK A01 T00751003  RH  058%=      5-min Rain = 0
KVA1 131655Z 19008KT 08/M00 A3022 RMK A01 T00751001  RH  059%=      5-min Rain = 0
KVA1 131656Z 17007KT 08/M00 A3022 RMK A01 T00751003  RH  058%=      5-min Rain = 0
KVA1 131657Z 17007KT 08/M00 A3022 RMK A01 T00761002  RH  058%=      5-min Rain = 0
KVA1 131658Z 18007KT 08/M00 A3022 RMK A01 T00771001  RH  058%=      5-min Rain = 0
KVA1 131659Z 21007KT 08/00 A3022 RMK A01 T00770001  RH  058%=      5-min Rain = 0
KVA1 131700Z 20009KT 08/M00 A3022 RMK A01 T00781001  RH  057%=      5-min Rain = 0
KVA1 131701Z 20007KT 08/M00 A3022 RMK A01 T00761003  RH  057%=      5-min Rain = 0
KVA1 131702Z 20007KT 08/M00 A3022 RMK A01 T00761001  RH  058%=      5-min Rain = 0
KVA1 131703Z 21006KT 08/00 A3022 RMK A01 T00770002  RH  059%=      5-min Rain = 0
KVA1 131704Z 19006KT 08/00 A3022 RMK A01 T00780001  RH  058%=      5-min Rain = 0
KVA1 131705Z 18008KT 08/00 A3022 RMK A01 T00790002  RH  058%=      5-min Rain = 0
KVA1 131706Z 17007KT 08/01 A3022 RMK A01 T00820005  RH  058%=      5-min Rain = 0
KVA1 131707Z 18006KT 08/M00 A3022 RMK A01 T00831002  RH  055%=      5-min Rain = 0
KVA1 131708Z 18007KT 08/M00 A3022 RMK A01 T00811004  RH  055%=      5-min Rain = 0
KVA1 131709Z 18007KT 08/00 A3022 RMK A01 T00810001  RH  057%=      5-min Rain = 0
KVA1 131710Z 18008KT 08/M00 A3022 RMK A01 T00821003  RH  055%=      5-min Rain = 0
KVA1 131711Z 17008KT 08/M00 A3022 RMK A01 T00821004  RH  055%=      5-min Rain = 0
KVA1 131712Z 19009KT 08/M00 A3022 RMK A01 T00821003  RH  055%=      5-min Rain = 0
KVA1 131713Z 22007KT 08/00 A3022 RMK A01 T00820000  RH  056%=      5-min Rain = 0
KVA1 131714Z 21007KT 08/00 A3022 RMK A01 T00840003  RH  057%=      5-min Rain = 0
KVA1 131715Z 21009KT 08/00 A3022 RMK A01 T008400-0  RH  055%=      5-min Rain = 0
KVA1 131716Z 20009KT 08/00 A3022 RMK A01 T00840000  RH  056%=      5-min Rain = 0
KVA1 131717Z 19008KT 08/M00 A3022 RMK A01 T00831002  RH  055%=      5-min Rain = 0
KVA1 131718Z 21008KT 08/00 A3021 RMK A01 T00830002  RH  056%=      5-min Rain = 0
KVA1 131719Z 21007KT 08/00 A3021 RMK A01 T00840002  RH  056%=      5-min Rain = 0
KVA1 131720Z 21010KT 09/00 A3021 RMK A01 T00850000  RH  055%=      5-min Rain = 0
KVA1 131721Z 19009KT 08/M00 A3021 RMK A01 T00831002  RH  055%=      5-min Rain = 0
KVA1 131722Z 19009KT 08/00 A3021 RMK A01 T00830002  RH  057%=      5-min Rain = 0
KVA1 131723Z 20008KT 08/M00 A3021 RMK A01 T00831003  RH  055%=      5-min Rain = 0
KVA1 131724Z 18009KT 08/00 A3021 RMK A01 T00830001  RH  056%=      5-min Rain = 0
KVA1 131725Z 18009KT 09/00 A3021 RMK A01 T00850003  RH  056%=      5-min Rain = 0
KVA1 131726Z 18009KT 09/01 A3021 RMK A01 T00880006  RH  056%=      5-min Rain = 0
KVA1 131727Z 19008KT 09/00 A3021 RMK A01 T00890003  RH  055%=      5-min Rain = 0
KVA1 131728Z 18009KT 09/00 A3021 RMK A01 T00890001  RH  054%=      5-min Rain = 0
KVA1 131729Z 20010KT 09/00 A3021 RMK A01 T00890003  RH  055%=      5-min Rain = 0
KVA1 131730Z 22010KT 09/00 A3021 RMK A01 T00890004  RH  055%=      5-min Rain = 0
KVA1 131731Z 22008KT 09/00 A3021 RMK A01 T008700-0  RH  054%=      5-min Rain = 0
KVA1 131732Z 23008KT 09/00 A3021 RMK A01 T00870002  RH  055%=      5-min Rain = 0
KVA1 131733Z 22009KT 09/00 A3021 RMK A01 T00860000  RH  055%=      5-min Rain = 0
KVA1 131734Z 24010KT 09/00 A3021 RMK A01 T008600-0  RH  055%=      5-min Rain = 0
KVA1 131735Z 23009KT 09/00 A3021 RMK A01 T00860003  RH  056%=      5-min Rain = 0
KVA1 131736Z 22006KT 09/00 A3021 RMK A01 T00880003  RH  055%=      5-min Rain = 0
KVA1 131737Z 22009KT 09/00 A3021 RMK A01 T00890004  RH  055%=      5-min Rain = 0
KVA1 131738Z 20007KT 09/00 A3021 RMK A01 T00890003  RH  055%=      5-min Rain = 0
KVA1 131739Z 20008KT 09/01 A3021 RMK A01 T00900006  RH  056%=      5-min Rain = 0
KVA1 131740Z 21009KT 09/01 A3021 RMK A01 T00920006  RH  055%=      5-min Rain = 0
KVA1 131741Z 22005KT 09/01 A302 RMK A01 T00920007  RH  055%=      5-min Rain = 0
KVA1 131742Z 22005KT 10/01 A302 RMK A01 T00950013  RH  057%=      5-min Rain = 0
KVA1 131743Z 22007KT 10/01 A302 RMK A01 T00960007  RH  054%=      5-min Rain = 0
KVA1 131744Z 20008KT 10/01 A302 RMK A01 T00950005  RH  054%=      5-min Rain = 0
KVA1 131745Z 20006KT 09/00 A302 RMK A01 T00930003  RH  053%=      5-min Rain = 0
KVA1 131746Z 20008KT 09/00 A302 RMK A01 T00930003  RH  053%=      5-min Rain = 0
KVA1 131747Z 19006KT 09/01 A302 RMK A01 T00930006  RH  054%=      5-min Rain = 0
KVA1 131748Z 18007KT 10/01 A302 RMK A01 T00960010  RH  055%=      5-min Rain = 0
KVA1 131749Z 18007KT 10/00 A302 RMK A01 T00960003  RH  052%=      5-min Rain = 0
KVA1 131750Z 17009KT 10/00 A302 RMK A01 T00950004  RH  053%=      5-min Rain = 0
KVA1 131751Z 17010KT 10/00 A302 RMK A01 T00950003  RH  053%=      5-min Rain = 0
KVA1 131752Z 22010KT 10/01 A302 RMK A01 T00980009  RH  054%=      5-min Rain = 0
KVA1 131753Z 22007KT 10/00 A302 RMK A01 T00980004  RH  052%=      5-min Rain = 0
KVA1 131754Z 23007KT 10/01 A302 RMK A01 T00970010  RH  054%=      5-min Rain = 0
KVA1 131755Z 23007KT 10/01 A302 RMK A01 T00990009  RH  053%=      5-min Rain = 0
KVA1 131756Z 21007KT 10/01 A302 RMK A01 T01000012  RH  054%=      5-min Rain = 0
KVA1 131757Z 22007KT 10/01 A302 RMK A01 T01020011  RH  053%=      5-min Rain = 0
KVA1 131758Z 22008KT 10/01 A302 RMK A01 T01020009  RH  053%=      5-min Rain = 0
KVA1 131759Z 21008KT 10/01 A302 RMK A01 T01010006  RH  052%=      5-min Rain = 0
KVA1 131800Z 21007KT 10/01 A302 RMK A01 T00990007  RH  053%=      5-min Rain = 0
KVA1 131801Z 19007KT 10/01 A302 RMK A01 T01000011  RH  054%=      5-min Rain = 0
KVA1 131802Z 19009KT 10/01 A302 RMK A01 T01000005  RH  051%=      5-min Rain = 0
KVA1 131803Z 20009KT 10/01 A302 RMK A01 T01010007  RH  052%=      5-min Rain = 0
KVA1 131804Z 19007KT 10/00 A302 RMK A01 T00990004  RH  051%=      5-min Rain = 0
KVA1 131805Z 22007KT 10/00 A302 RMK A01 T00980003  RH  052%=      5-min Rain = 0
KVA1 131806Z 23007KT 10/00 A302 RMK A01 T00980003  RH  051%=      5-min Rain = 0
KVA1 131807Z 23008KT 10/00 A3019 RMK A01 T00990004  RH  052%=      5-min Rain = 0
KVA1 131808Z 22008KT 10/01 A3019 RMK A01 T01000007  RH  053%=      5-min Rain = 0
KVA1 131809Z 20009KT 10/00 A3019 RMK A01 T01010003  RH  051%=      5-min Rain = 0
KVA1 131810Z 20008KT 10/00 A3019 RMK A01 T01000002  RH  051%=      5-min Rain = 0
KVA1 131811Z 21005KT 10/00 A3019 RMK A01 T01000002  RH  051%=      5-min Rain = 0
KVA1 131812Z 20007KT 10/00 A3019 RMK A01 T01000000  RH  050%=      5-min Rain = 0
KVA1 131813Z 21006KT 10/01 A3019 RMK A01 T01010005  RH  051%=      5-min Rain = 0
KVA1 131814Z 20006KT 10/01 A3019 RMK A01 T01020007  RH  051%=      5-min Rain = 0
KVA1 131815Z 21007KT 10/01 A3019 RMK A01 T01040007  RH  051%=      5-min Rain = 0
KVA1 131816Z 20005KT 10/00 A302 RMK A01 T01020002  RH  050%=      5-min Rain = 0
KVA1 131817Z 21006KT 10/01 A3019 RMK A01 T01020005  RH  051%=      5-min Rain = 0
KVA1 131818Z 21004KT 10/00 A3019 RMK A01 T01020001  RH  050%=      5-min Rain = 0
KVA1 131819Z 21005KT 10/00 A3019 RMK A01 T01000001  RH  050%=      5-min Rain = 0
KVA1 131820Z 20003KT 10/00 A3019 RMK A01 T01000003  RH  051%=      5-min Rain = 0
KVA1 131821Z 21006KT 10/01 A3019 RMK A01 T01030009  RH  052%=      5-min Rain = 0
KVA1 131822Z 21006KT 10/00 A3019 RMK A01 T01030004  RH  050%=      5-min Rain = 0
KVA1 131823Z 21005KT 10/01 A3019 RMK A01 T01030007  RH  051%=      5-min Rain = 0
KVA1 131824Z 23006KT 11/01 A3019 RMK A01 T01060012  RH  052%=      5-min Rain = 0
KVA1 131825Z 22006KT 11/01 A3019 RMK A01 T01080008  RH  050%=      5-min Rain = 0
KVA1 131826Z 23006KT 11/00 A3019 RMK A01 T01070004  RH  049%=      5-min Rain = 0
KVA1 131827Z 24006KT 11/00 A3019 RMK A01 T01060003  RH  049%=      5-min Rain = 0
KVA1 131828Z 23007KT 11/01 A3019 RMK A01 T01060005  RH  050%=      5-min Rain = 0
KVA1 131829Z 23006KT 11/00 A3019 RMK A01 T01070004  RH  049%=      5-min Rain = 0
KVA1 131830Z 19006KT 11/01 A3019 RMK A01 T01070006  RH  050%=      5-min Rain = 0
KVA1 131831Z 20005KT 11/01 A3019 RMK A01 T01080008  RH  050%=      5-min Rain = 0
KVA1 131832Z 20005KT 11/01 A3019 RMK A01 T01100010  RH  050%=      5-min Rain = 0
KVA1 131833Z 18005KT 11/01 A3019 RMK A01 T01110009  RH  049%=      5-min Rain = 0
KVA1 131834Z 18007KT 11/01 A3019 RMK A01 T01110006  RH  048%=      5-min Rain = 0
KVA1 131835Z 20010KT 11/01 A3019 RMK A01 T01110006  RH  048%=      5-min Rain = 0
KVA1 131836Z 22008KT 11/00 A3019 RMK A01 T01110004  RH  048%=      5-min Rain = 0
KVA1 131837Z 23006KT 11/01 A3019 RMK A01 T01110006  RH  048%=      5-min Rain = 0
KVA1 131838Z 21006KT 11/01 A3019 RMK A01 T01110006  RH  048%=      5-min Rain = 0
KVA1 131839Z 22004KT 11/00 A3018 RMK A01 T01100000  RH  047%=      5-min Rain = 0
KVA1 131840Z 25003KT 11/00 A3018 RMK A01 T01080000  RH  047%=      5-min Rain = 0
KVA1 131841Z 23002KT 11/00 A3018 RMK A01 T01070003  RH  048%=      5-min Rain = 0
KVA1 131842Z 21007KT 11/01 A3018 RMK A01 T01090005  RH  049%=      5-min Rain = 0
KVA1 131843Z 22006KT 11/01 A3018 RMK A01 T01120011  RH  050%=      5-min Rain = 0
KVA1 131844Z 21006KT 11/01 A3018 RMK A01 T01140008  RH  048%=      5-min Rain = 0
KVA1 131845Z 19006KT 11/00 A3018 RMK A01 T01130003  RH  047%=      5-min Rain = 0
KVA1 131846Z 18009KT 11/01 A3018 RMK A01 T01120006  RH  048%=      5-min Rain = 0
KVA1 131847Z 18007KT 11/01 A3018 RMK A01 T01130005  RH  047%=      5-min Rain = 0
KVA1 131848Z 19006KT 11/01 A3018 RMK A01 T01120007  RH  048%=      5-min Rain = 0
KVA1 131849Z 19007KT 11/00 A3018 RMK A01 T01130004  RH  047%=      5-min Rain = 0
KVA1 131850Z 20008KT 11/00 A3018 RMK A01 T01120004  RH  047%=      5-min Rain = 0
KVA1 131851Z 19008KT 11/00 A3018 RMK A01 T01110003  RH  047%=      5-min Rain = 0
KVA1 131852Z 20005KT 11/00 A3018 RMK A01 T01100002  RH  047%=      5-min Rain = 0
KVA1 131853Z 22005KT 11/01 A3018 RMK A01 T01100005  RH  048%=      5-min Rain = 0
KVA1 131854Z 18002KT 11/00 A3018 RMK A01 T01110001  RH  047%=      5-min Rain = 0
KVA1 131855Z 14005KT 11/00 A3017 RMK A01 T01110002  RH  047%=      5-min Rain = 0
KVA1 131856Z 17007KT 11/00 A3017 RMK A01 T01120003  RH  047%=      5-min Rain = 0
KVA1 131857Z 17006KT 12/01 A3017 RMK A01 T01160009  RH  048%=      5-min Rain = 0
KVA1 131858Z 18008KT 12/01 A3017 RMK A01 T01180007  RH  047%=      5-min Rain = 0
KVA1 131859Z 22005KT 12/01 A3017 RMK A01 T01200009  RH  046%=      5-min Rain = 0
KVA1 131900Z 19004KT 12/00 A3017 RMK A01 T01190004  RH  045%=      5-min Rain = 0
KVA1 131901Z 19004KT 12/00 A3017 RMK A01 T01180003  RH  045%=      5-min Rain = 0
KVA1 131902Z 17005KT 12/00 A3017 RMK A01 T01160002  RH  045%=      5-min Rain = 0
KVA1 131903Z 21006KT 12/01 A3017 RMK A01 T01160005  RH  046%=      5-min Rain = 0
KVA1 131904Z 20007KT 12/01 A3017 RMK A01 T01180010  RH  047%=      5-min Rain = 0
KVA1 131905Z 22009KT 12/01 A3017 RMK A01 T01220010  RH  046%=      5-min Rain = 0
KVA1 131906Z 22009KT 12/00 A3017 RMK A01 T01220004  RH  044%=      5-min Rain = 0
KVA1 131907Z 22005KT 12/M00 A3017 RMK A01 T01191001  RH  044%=      5-min Rain = 0
KVA1 131908Z 24004KT 12/00 A3017 RMK A01 T011700-0  RH  044%=      5-min Rain = 0
KVA1 131909Z 24004KT 12/00 A3017 RMK A01 T01160001  RH  045%=      5-min Rain = 0
KVA1 131910Z 25006KT 12/00 A3017 RMK A01 T011600-0  RH  045%=      5-min Rain = 0
KVA1 131911Z 22006KT 12/00 A3017 RMK A01 T01160000  RH  045%=      5-min Rain = 0
KVA1 131912Z 24006KT 12/00 A3016 RMK A01 T01160000  RH  045%=      5-min Rain = 0
KVA1 131913Z 16008KT 12/01 A3016 RMK A01 T01170005  RH  046%=      5-min Rain = 0
KVA1 131914Z 17006KT 12/01 A3017 RMK A01 T01190008  RH  047%=      5-min Rain = 0
KVA1 131915Z 17010KT 12/01 A3017 RMK A01 T01240012  RH  047%=      5-min Rain = 0
KVA1 131916Z 17008KT 12/01 A3016 RMK A01 T01230005  RH  044%=      5-min Rain = 0
KVA1 131917Z 18008KT 12/01 A3016 RMK A01 T01220006  RH  045%=      5-min Rain = 0
KVA1 131918Z 20006KT 12/01 A3016 RMK A01 T01220006  RH  045%=      5-min Rain = 0
KVA1 131919Z 18005KT 12/00 A3016 RMK A01 T01200003  RH  045%=      5-min Rain = 0
KVA1 131920Z 17007KT 12/01 A3016 RMK A01 T01210011  RH  047%=      5-min Rain = 0
KVA1 131921Z 15006KT 12/01 A3016 RMK A01 T01220005  RH  044%=      5-min Rain = 0
KVA1 131922Z 17005KT 12/00 A3016 RMK A01 T01220003  RH  044%=      5-min Rain = 0
KVA1 131923Z 17004KT 12/01 A3016 RMK A01 T01220008  RH  045%=      5-min Rain = 0
KVA1 131924Z 20009G19KT 13/01 A3015 RMK A01 T01250008  RH  045%=      5-min Rain = 0
KVA1 131925Z 20007KT 13/00 A3016 RMK A01 T01250001  RH  042%=      5-min Rain = 0
KVA1 131926Z 21008KT 13/00 A3016 RMK A01 T01250001  RH  042%=      5-min Rain = 0
KVA1 131927Z 23009KT 13/M00 A3016 RMK A01 T01251001  RH  042%=      5-min Rain = 0
KVA1 131928Z 23006KT 12/M01 A3016 RMK A01 T01231006  RH  041%=      5-min Rain = 0
KVA1 131929Z 24004KT 12/M00 A3016 RMK A01 T01221004  RH  042%=      5-min Rain = 0
KVA1 131930Z 22003KT 12/M01 A3016 RMK A01 T01221005  RH  041%=      5-min Rain = 0
KVA1 131931Z 21004KT 12/M00 A3015 RMK A01 T01221003  RH  042%=      5-min Rain = 0
KVA1 131932Z 23006KT 12/M00 A3015 RMK A01 T01231003  RH  042%=      5-min Rain = 0
KVA1 131933Z 26005KT 12/M01 A3015 RMK A01 T01241006  RH  041%=      5-min Rain = 0
KVA1 131934Z 24006G11KT 12/M00 A3015 RMK A01 T01221004  RH  042%=      5-min Rain = 0
KVA1 131935Z 23008KT 12/00 A3015 RMK A01 T01240003  RH  043%=      5-min Rain = 0
KVA1 131936Z 23008KT 13/00 A3015 RMK A01 T01260002  RH  043%=      5-min Rain = 0
KVA1 131937Z 24004KT 13/M00 A3015 RMK A01 T01261003  RH  041%=      5-min Rain = 0
KVA1 131938Z 22002KT 13/M00 A3015 RMK A01 T01251002  RH  042%=      5-min Rain = 0
KVA1 131939Z 22006KT 13/00 A3015 RMK A01 T01260003  RH  043%=      5-min Rain = 0
KVA1 131940Z 25006KT 13/00 A3015 RMK A01 T01260001  RH  042%=      5-min Rain = 0
KVA1 131941Z 23006KT 13/00 A3015 RMK A01 T01250001  RH  042%=      5-min Rain = 0
KVA1 131942Z 22007KT 12/00 A3015 RMK A01 T01240000  RH  042%=      5-min Rain = 0
KVA1 131943Z 22008KT 13/00 A3015 RMK A01 T01250001  RH  043%=      5-min Rain = 0
KVA1 131944Z 20006KT 12/M00 A3014 RMK A01 T01241001  RH  042%=      5-min Rain = 0
KVA1 131945Z 17007KT 12/00 A3014 RMK A01 T01230003  RH  044%=      5-min Rain = 0
KVA1 131946Z 16010KT 13/01 A3014 RMK A01 T01250005  RH  044%=      5-min Rain = 0
KVA1 131947Z 17008KT 13/00 A3014 RMK A01 T01250001  RH  042%=      5-min Rain = 0
KVA1 131948Z 18009KT 13/00 A3014 RMK A01 T01250002  RH  043%=      5-min Rain = 0
KVA1 131949Z 18010KT 13/00 A3014 RMK A01 T01260004  RH  043%=      5-min Rain = 0
KVA1 131950Z 18008KT 13/00 A3014 RMK A01 T01260001  RH  042%=      5-min Rain = 0
KVA1 131951Z 17007KT 13/00 A3014 RMK A01 T01250003  RH  043%=      5-min Rain = 0
KVA1 131952Z 16005KT 13/00 A3014 RMK A01 T01270002  RH  042%=      5-min Rain = 0
KVA1 131953Z 16003KT 13/M00 A3014 RMK A01 T01261001  RH  042%=      5-min Rain = 0
KVA1 131954Z 16009KT 13/00 A3014 RMK A01 T01260002  RH  042%=      5-min Rain = 0
KVA1 131955Z 15006KT 13/00 A3014 RMK A01 T01260001  RH  042%=      5-min Rain = 0
KVA1 131956Z 18006KT 13/00 A3014 RMK A01 T01260004  RH  043%=      5-min Rain = 0
KVA1 131957Z 17008KT 13/01 A3014 RMK A01 T01280007  RH  043%=      5-min Rain = 0
KVA1 131958Z 19007KT 13/00 A3014 RMK A01 T01290003  RH  042%=      5-min Rain = 0
KVA1 131959Z 17007G13KT 13/00 A3013 RMK A01 T01290003  RH  042%=      5-min Rain = 0
KVA1 132000Z 24006G12KT 13/00 A3013 RMK A01 T01300004  RH  042%=      5-min Rain = 0
KVA1 132001Z 22005KT 13/00 A3013 RMK A01 T01300000  RH  041%=      5-min Rain = 0
KVA1 132002Z 20005KT 13/00 A3013 RMK A01 T01310004  RH  042%=      5-min Rain = 0
KVA1 132003Z 19006KT 13/00 A3013 RMK A01 T01320002  RH  041%=      5-min Rain = 0
KVA1 132004Z 18004KT 13/00 A3013 RMK A01 T01300003  RH  042%=      5-min Rain = 0
KVA1 132005Z 16004KT 13/01 A3013 RMK A01 T01320006  RH  042%=      5-min Rain = 0
KVA1 132006Z 16006KT 13/00 A3013 RMK A01 T01330001  RH  040%=      5-min Rain = 0
KVA1 132007Z 16006KT 13/M00 A3013 RMK A01 T01321002  RH  040%=      5-min Rain = 0
KVA1 132008Z 16006KT 13/M01 A3013 RMK A01 T01321006  RH  039%=      5-min Rain = 0
KVA1 132009Z 17009KT 13/M01 A3013 RMK A01 T01331006  RH  038%=      5-min Rain = 0
KVA1 132010Z 21007KT 13/M01 A3013 RMK A01 T01331006  RH  038%=      5-min Rain = 0
KVA1 132011Z 22007KT 13/M01 A3013 RMK A01 T01341011  RH  037%=      5-min Rain = 0
KVA1 132012Z 22004KT 13/M01 A3013 RMK A01 T01341014  RH  036%=      5-min Rain = 0
KVA1 132013Z 20008KT 14/M01 A3013 RMK A01 T01361006  RH  038%=      5-min Rain = 0
KVA1 132014Z 23006KT 14/M01 A3013 RMK A01 T01351010  RH  037%=      5-min Rain = 0
KVA1 132015Z 22007KT 14/M01 A3012 RMK A01 T01351009  RH  037%=      5-min Rain = 0
KVA1 132016Z 22005KT 14/M01 A3012 RMK A01 T01351013  RH  036%=      5-min Rain = 0
KVA1 132017Z 23005KT 13/M02 A3012 RMK A01 T01321020  RH  035%=      5-min Rain = 0
KVA1 132018Z 22004KT 13/M01 A3012 RMK A01 T01301014  RH  037%=      5-min Rain = 0
KVA1 132019Z 22007KT 13/M01 A3012 RMK A01 T01321012  RH  037%=      5-min Rain = 0
KVA1 132020Z 22005KT 13/M02 A3012 RMK A01 T01301020  RH  035%=      5-min Rain = 0
KVA1 132021Z 21006KT 13/M01 A3012 RMK A01 T01291014  RH  037%=      5-min Rain = 0
KVA1 132022Z 22006KT 13/M01 A3012 RMK A01 T01291014  RH  037%=      5-min Rain = 0
KVA1 132023Z 20008KT 13/M01 A3012 RMK A01 T01301010  RH  038%=      5-min Rain = 0
KVA1 132024Z 20005KT 13/M00 A3012 RMK A01 T01291004  RH  040%=      5-min Rain = 0
KVA1 132025Z 22002KT 13/M01 A3012 RMK A01 T01291005  RH  040%=      5-min Rain = 0
KVA1 132026Z 04000KT 13/M00 A3012 RMK A01 T01291004  RH  040%=      5-min Rain = 0
KVA1 132027Z 07001KT 13/M01 A3012 RMK A01 T01291007  RH  039%=      5-min Rain = 0
KVA1 132028Z 08001KT 13/M01 A3012 RMK A01 T01291007  RH  039%=      5-min Rain = 0
KVA1 132029Z 20006KT 13/M01 A3012 RMK A01 T01291005  RH  039%=      5-min Rain = 0
KVA1 132030Z 18005KT 13/M01 A3012 RMK A01 T01321009  RH  038%=      5-min Rain = 0
KVA1 132031Z 20008KT 14/M01 A3012 RMK A01 T01351008  RH  037%=      5-min Rain = 0
KVA1 132032Z 22006KT 14/M01 A3012 RMK A01 T01381005  RH  037%=      5-min Rain = 0
KVA1 132033Z 23006KT 14/M01 A3012 RMK A01 T01381011  RH  036%=      5-min Rain = 0
KVA1 132034Z 26005KT 14/M01 A3012 RMK A01 T01381007  RH  037%=      5-min Rain = 0
KVA1 132035Z 26003KT 14/M01 A3012 RMK A01 T01371012  RH  036%=      5-min Rain = 0
KVA1 132036Z 24003KT 14/M01 A3012 RMK A01 T01361012  RH  036%=      5-min Rain = 0
KVA1 132037Z 19006KT 14/M01 A3012 RMK A01 T01351012  RH  036%=      5-min Rain = 0
KVA1 132038Z 19006KT 14/M01 A3012 RMK A01 T01351006  RH  038%=      5-min Rain = 0
KVA1 132039Z 19004KT 13/M01 A3012 RMK A01 T01341005  RH  038%=      5-min Rain = 0
KVA1 132040Z 20003KT 13/M01 A3012 RMK A01 T01331006  RH  038%=      5-min Rain = 0
KVA1 132041Z 23004KT 13/M01 A3012 RMK A01 T01331007  RH  038%=      5-min Rain = 0
KVA1 132042Z 19004KT 13/M01 A3012 RMK A01 T01341009  RH  037%=      5-min Rain = 0
KVA1 132043Z 18006KT 13/M00 A3012 RMK A01 T01341004  RH  038%=      5-min Rain = 0
KVA1 132044Z 18004KT 14/M01 A3012 RMK A01 T01351007  RH  038%=      5-min Rain = 0
KVA1 132045Z 17001KT 13/M01 A3012 RMK A01 T01341007  RH  038%=      5-min Rain = 0
KVA1 132046Z 16001KT 13/M01 A3012 RMK A01 T01341008  RH  037%=      5-min Rain = 0
KVA1 132047Z 21003KT 14/M01 A3012 RMK A01 T01351005  RH  038%=      5-min Rain = 0
KVA1 132048Z 23007KT 14/M00 A3012 RMK A01 T01371004  RH  038%=      5-min Rain = 0
KVA1 132049Z 23007KT 14/M01 A3012 RMK A01 T01371011  RH  036%=      5-min Rain = 0
KVA1 132050Z 22005KT 14/M01 A3012 RMK A01 T01361011  RH  036%=      5-min Rain = 0
KVA1 132051Z 23005KT 14/M01 A3012 RMK A01 T01361008  RH  037%=      5-min Rain = 0
KVA1 132052Z 24003KT 14/M01 A3012 RMK A01 T01361013  RH  036%=      5-min Rain = 0
KVA1 132053Z 22005KT 14/M01 A3011 RMK A01 T01351013  RH  036%=      5-min Rain = 0
KVA1 132054Z 23002KT 13/M02 A3011 RMK A01 T01341017  RH  035%=      5-min Rain = 0
KVA1 132055Z 10000KT 13/M02 A3011 RMK A01 T01341019  RH  035%=      5-min Rain = 0
KVA1 132056Z 13001KT 14/M02 A3011 RMK A01 T01351016  RH  035%=      5-min Rain = 0
KVA1 132057Z 17002KT 14/M01 A3011 RMK A01 T01361011  RH  036%=      5-min Rain = 0
KVA1 132058Z 17004KT 14/M01 A3011 RMK A01 T01381010  RH  036%=      5-min Rain = 0
KVA1 132059Z 16004KT 14/M01 A3011 RMK A01 T01381011  RH  036%=      5-min Rain = 0
KVA1 132100Z 16004KT 14/M01 A3011 RMK A01 T01381010  RH  036%=      5-min Rain = 0
KVA1 132101Z 17004KT 14/M01 A3011 RMK A01 T01381008  RH  036%=      5-min Rain = 0
KVA1 132102Z 20006KT 14/M01 A3011 RMK A01 T01401009  RH  036%=      5-min Rain = 0
KVA1 132103Z 22007KT 14/M02 A3011 RMK A01 T01391017  RH  034%=      5-min Rain = 0
KVA1 132104Z 22006KT 14/M02 A3011 RMK A01 T01371019  RH  034%=      5-min Rain = 0
KVA1 132105Z 21009KT 14/M02 A3011 RMK A01 T01371015  RH  035%=      5-min Rain = 0
KVA1 132106Z 20007KT 14/M02 A3011 RMK A01 T01371017  RH  035%=      5-min Rain = 0
KVA1 132107Z 20006KT 14/M02 A3011 RMK A01 T01371016  RH  035%=      5-min Rain = 0
KVA1 132108Z 19003KT 14/M01 A3011 RMK A01 T01381014  RH  035%=      5-min Rain = 0
KVA1 132109Z 18004KT 14/M02 A3011 RMK A01 T01391016  RH  034%=      5-min Rain = 0
KVA1 132110Z 22004KT 14/M02 A3011 RMK A01 T01391020  RH  033%=      5-min Rain = 0
KVA1 132111Z 19006KT 14/M02 A3011 RMK A01 T01381016  RH  035%=      5-min Rain = 0
KVA1 132112Z 19007KT 14/M02 A3011 RMK A01 T01391016  RH  034%=      5-min Rain = 0
KVA1 132113Z 18007KT 14/M02 A3011 RMK A01 T01401015  RH  034%=      5-min Rain = 0
KVA1 132114Z 17006KT 14/M02 A3011 RMK A01 T01401019  RH  033%=      5-min Rain = 0
KVA1 132115Z 16007KT 14/M02 A301 RMK A01 T01391018  RH  034%=      5-min Rain = 0
KVA1 132116Z 16005KT 14/M02 A301 RMK A01 T01391020  RH  033%=      5-min Rain = 0
KVA1 132117Z 19003KT 14/M02 A301 RMK A01 T01401017  RH  034%=      5-min Rain = 0
KVA1 132118Z 26003KT 14/M01 A301 RMK A01 T01421014  RH  034%=      5-min Rain = 0
KVA1 132119Z 24004KT 14/M02 A301 RMK A01 T01431015  RH  034%=      5-min Rain = 0
KVA1 132120Z 25005KT 15/M01 A301 RMK A01 T01451011  RH  034%=      5-min Rain = 0
KVA1 132121Z 24007KT 15/M01 A301 RMK A01 T01451014  RH  033%=      5-min Rain = 0
KVA1 132122Z 24004KT 14/M02 A301 RMK A01 T01431020  RH  032%=      5-min Rain = 0
KVA1 132123Z 26007KT 14/M02 A301 RMK A01 T01411019  RH  033%=      5-min Rain = 0
KVA1 132124Z 27005KT 14/M02 A301 RMK A01 T01401018  RH  033%=      5-min Rain = 0
KVA1 132125Z 25002KT 14/M02 A301 RMK A01 T01391022  RH  033%=      5-min Rain = 0
KVA1 132126Z 27003KT 14/M02 A301 RMK A01 T01381020  RH  033%=      5-min Rain = 0
KVA1 132127Z 29002KT 14/M02 A301 RMK A01 T01391020  RH  033%=      5-min Rain = 0
KVA1 132128Z 26000KT 14/M02 A301 RMK A01 T01391021  RH  033%=      5-min Rain = 0
KVA1 132129Z 25000KT 14/M02 A301 RMK A01 T01411017  RH  034%=      5-min Rain = 0
KVA1 132130Z 09004KT 14/M02 A301 RMK A01 T01431015  RH  034%=      5-min Rain = 0
KVA1 132131Z 12004KT 14/M02 A301 RMK A01 T01431015  RH  033%=      5-min Rain = 0
KVA1 132132Z 16004KT 15/M01 A301 RMK A01 T01451011  RH  034%=      5-min Rain = 0
KVA1 132133Z 21004KT 15/M01 A301 RMK A01 T01471010  RH  034%=      5-min Rain = 0
KVA1 132134Z 21003KT 15/M02 A301 RMK A01 T01471017  RH  032%=      5-min Rain = 0
KVA1 132135Z 23004G9KT 14/M02 A301 RMK A01 T01441019  RH  032%=      5-min Rain = 0
KVA1 132136Z 23004KT 14/M02 A301 RMK A01 T01431019  RH  033%=      5-min Rain = 0
KVA1 132137Z 23002KT 14/M02 A301 RMK A01 T01421019  RH  033%=      5-min Rain = 0
KVA1 132138Z 23003KT 14/M02 A301 RMK A01 T01431016  RH  033%=      5-min Rain = 0
KVA1 132139Z 18002KT 14/M02 A301 RMK A01 T01431018  RH  033%=      5-min Rain = 0
KVA1 132140Z 19002KT 14/M02 A301 RMK A01 T01441018  RH  033%=      5-min Rain = 0
KVA1 132141Z 18002KT 14/M02 A301 RMK A01 T01441018  RH  033%=      5-min Rain = 0
KVA1 132142Z 20003KT 14/M02 A301 RMK A01 T01441018  RH  033%=      5-min Rain = 0
KVA1 132143Z 21004KT 14/M02 A3009 RMK A01 T01441018  RH  033%=      5-min Rain = 0
KVA1 132144Z 21005KT 14/M01 A3009 RMK A01 T01441013  RH  034%=      5-min Rain = 0
KVA1 132145Z 21005KT 15/M01 A3009 RMK A01 T01461010  RH  034%=      5-min Rain = 0
KVA1 132146Z 17006G11KT 15/M01 A3009 RMK A01 T01461011  RH  034%=      5-min Rain = 0
KVA1 132147Z 20008KT 15/M01 A3009 RMK A01 T01471010  RH  034%=      5-min Rain = 0
KVA1 132148Z 20008KT 15/M01 A3009 RMK A01 T01481010  RH  034%=      5-min Rain = 0
KVA1 132149Z 22006KT 15/M01 A3009 RMK A01 T01481012  RH  033%=      5-min Rain = 0
KVA1 132150Z 21007KT 15/M01 A3009 RMK A01 T01461012  RH  034%=      5-min Rain = 0
KVA1 132151Z 20005KT 15/M02 A3009 RMK A01 T01451016  RH  033%=      5-min Rain = 0
KVA1 132152Z 21003KT 14/M02 A3009 RMK A01 T01441016  RH  033%=      5-min Rain = 0
KVA1 132153Z 20002KT 14/M02 A3009 RMK A01 T01431016  RH  033%=      5-min Rain = 0
KVA1 132154Z 15002KT 14/M02 A3009 RMK A01 T01441017  RH  033%=      5-min Rain = 0
KVA1 132155Z 12001KT 14/M02 A3009 RMK A01 T01441018  RH  033%=      5-min Rain = 0
KVA1 132156Z 26003KT 14/M02 A3009 RMK A01 T01441015  RH  034%=      5-min Rain = 0
KVA1 132157Z 28003KT 14/M02 A3009 RMK A01 T01441017  RH  033%=      5-min Rain = 0
KVA1 132158Z 31000KT 14/M02 A3009 RMK A01 T01431021  RH  032%=      5-min Rain = 0
KVA1 132159Z 35001KT 14/M02 A3009 RMK A01 T01421021  RH  032%=      5-min Rain = 0
KVA1 132200Z 01001KT 14/M02 A3009 RMK A01 T01421016  RH  034%=      5-min Rain = 0
KVA1 132201Z 28000KT 14/M01 A3009 RMK A01 T01441012  RH  034%=      5-min Rain = 0
KVA1 132202Z 20003KT 15/M01 A3009 RMK A01 T01461013  RH  033%=      5-min Rain = 0
KVA1 132203Z 20004KT 15/M01 A3009 RMK A01 T01481010  RH  034%=      5-min Rain = 0
KVA1 132204Z 20003KT 15/M02 A3009 RMK A01 T01491016  RH  032%=      5-min Rain = 0
KVA1 132205Z 17002KT 15/M02 A3009 RMK A01 T01471017  RH  032%=      5-min Rain = 0
KVA1 132206Z 17003KT 15/M02 A3009 RMK A01 T01471016  RH  032%=      5-min Rain = 0
KVA1 132207Z 17001KT 15/M02 A3009 RMK A01 T01461019  RH  032%=      5-min Rain = 0
KVA1 132208Z 18002G7KT 15/M01 A3009 RMK A01 T01461014  RH  033%=      5-min Rain = 0
KVA1 132209Z 18006KT 15/M01 A3009 RMK A01 T01481011  RH  034%=      5-min Rain = 0
KVA1 132210Z 18006KT 15/M01 A3009 RMK A01 T01501012  RH  033%=      5-min Rain = 0
KVA1 132211Z 17006KT 15/M02 A3009 RMK A01 T01521015  RH  032%=      5-min Rain = 0
KVA1 132212Z 17005KT 15/M02 A3009 RMK A01 T01511019  RH  031%=      5-min Rain = 0
KVA1 132213Z 18005KT 15/M02 A3009 RMK A01 T01501018  RH  031%=      5-min Rain = 0
KVA1 132214Z 16005KT 15/M02 A3009 RMK A01 T01491018  RH  032%=      5-min Rain = 0
KVA1 132215Z 16004KT 15/M02 A3009 RMK A01 T01481018  RH  032%=      5-min Rain = 0
KVA1 132216Z 16006KT 15/M02 A3009 RMK A01 T01481018  RH  032%=      5-min Rain = 0
KVA1 132217Z 18007KT 15/M02 A3009 RMK A01 T01481018  RH  032%=      5-min Rain = 0
KVA1 132218Z 19005KT 15/M02 A3009 RMK A01 T01481018  RH  032%=      5-min Rain = 0
KVA1 132219Z 19003KT 15/M02 A3009 RMK A01 T01461023  RH  031%=      5-min Rain = 0
KVA1 132220Z 16003KT 15/M02 A3009 RMK A01 T01451021  RH  032%=      5-min Rain = 0
KVA1 132221Z 17007KT 15/M02 A3009 RMK A01 T01451018  RH  032%=      5-min Rain = 0
KVA1 132222Z 22007KT 15/M01 A3009 RMK A01 T01481013  RH  033%=      5-min Rain = 0
KVA1 132223Z 22007KT 15/M02 A3009 RMK A01 T01491016  RH  032%=      5-min Rain = 0
KVA1 132224Z 22006KT 15/M02 A3009 RMK A01 T01501017  RH  032%=      5-min Rain = 0
KVA1 132225Z 19005KT 15/M02 A3009 RMK A01 T01501015  RH  032%=      5-min Rain = 0
KVA1 132226Z 22006KT 15/M02 A3009 RMK A01 T01501017  RH  032%=      5-min Rain = 0
KVA1 132227Z 22005KT 15/M02 A3009 RMK A01 T01501016  RH  032%=      5-min Rain = 0
KVA1 132228Z 22003KT 15/M02 A3009 RMK A01 T01501017  RH  032%=      5-min Rain = 0
KVA1 132229Z 21003KT 15/M02 A3009 RMK A01 T01501017  RH  032%=      5-min Rain = 0
KVA1 132230Z 21005KT 15/M02 A3009 RMK A01 T01501017  RH  032%=      5-min Rain = 0
KVA1 132231Z 21005KT 15/M02 A3009 RMK A01 T01501020  RH  031%=      5-min Rain = 0
KVA1 132232Z 18003KT 15/M02 A3009 RMK A01 T01481021  RH  031%=      5-min Rain = 0
KVA1 132233Z 16003KT 15/M02 A3009 RMK A01 T01471022  RH  031%=      5-min Rain = 0
KVA1 132234Z 13003KT 15/M02 A3009 RMK A01 T01471021  RH  031%=      5-min Rain = 0
KVA1 132235Z 14003KT 15/M02 A3009 RMK A01 T01471018  RH  032%=      5-min Rain = 0
KVA1 132236Z 15003KT 15/M02 A3009 RMK A01 T01471021  RH  031%=      5-min Rain = 0
KVA1 132237Z 25001KT 15/M02 A3009 RMK A01 T01471020  RH  032%=      5-min Rain = 0
KVA1 132238Z 25002KT 15/M02 A3009 RMK A01 T01471022  RH  031%=      5-min Rain = 0
KVA1 132239Z 22004KT 15/M02 A3009 RMK A01 T01491019  RH  032%=      5-min Rain = 0
KVA1 132240Z 22008KT 15/M02 A3008 RMK A01 T01501017  RH  032%=      5-min Rain = 0
KVA1 132241Z 23009KT 15/M02 A3008 RMK A01 T01521017  RH  031%=      5-min Rain = 0
KVA1 132242Z 23008KT 15/M02 A3008 RMK A01 T01501021  RH  031%=      5-min Rain = 0
KVA1 132243Z 24005KT 15/M02 A3009 RMK A01 T01481023  RH  031%=      5-min Rain = 0
KVA1 132244Z 23005KT 15/M02 A3008 RMK A01 T01481015  RH  032%=      5-min Rain = 0
KVA1 132245Z 23005KT 15/M02 A3009 RMK A01 T01501020  RH  031%=      5-min Rain = 0
KVA1 132246Z 25004KT 15/M02 A3008 RMK A01 T01491022  RH  031%=      5-min Rain = 0
KVA1 132247Z 24004KT 15/M02 A3008 RMK A01 T01481021  RH  031%=      5-min Rain = 0
KVA1 132248Z 23004KT 15/M02 A3008 RMK A01 T01471023  RH  031%=      5-min Rain = 0
KVA1 132249Z 21005KT 15/M02 A3008 RMK A01 T01471021  RH  031%=      5-min Rain = 0
KVA1 132250Z 22006KT 15/M02 A3008 RMK A01 T01471020  RH  031%=      5-min Rain = 0
KVA1 132251Z 21007KT 15/M02 A3009 RMK A01 T01471018  RH  032%=      5-min Rain = 0
KVA1 132252Z 21006KT 15/M02 A3009 RMK A01 T01481020  RH  031%=      5-min Rain = 0
KVA1 132253Z 21003KT 15/M02 A3009 RMK A01 T01471023  RH  031%=      5-min Rain = 0
KVA1 132254Z 21004KT 15/M02 A3009 RMK A01 T01461023  RH  031%=      5-min Rain = 0
KVA1 132255Z 20004KT 15/M02 A3009 RMK A01 T01471022  RH  031%=      5-min Rain = 0
KVA1 132256Z 19002KT 15/M02 A3009 RMK A01 T01481019  RH  032%=      5-min Rain = 0
KVA1 132257Z 21001KT 15/M02 A3009 RMK A01 T01501019  RH  031%=      5-min Rain = 0
KVA1 132258Z 21007KT 15/M02 A3008 RMK A01 T01511020  RH  031%=      5-min Rain = 0
KVA1 132259Z 23006KT 15/M02 A3009 RMK A01 T01511022  RH  030%=      5-min Rain = 0
KVA1 132300Z 23004KT 15/M02 A3008 RMK A01 T01501019  RH  031%=      5-min Rain = 0
KVA1 132301Z 20005KT 15/M02 A3008 RMK A01 T01501018  RH  031%=      5-min Rain = 0
KVA1 132302Z 22005KT 15/M02 A3008 RMK A01 T01511020  RH  031%=      5-min Rain = 0
KVA1 132303Z 23005KT 15/M02 A3008 RMK A01 T01511022  RH  030%=      5-min Rain = 0
KVA1 132304Z 21004KT 15/M03 A3009 RMK A01 T01501027  RH  030%=      5-min Rain = 0
KVA1 132305Z 21005KT 15/M03 A3008 RMK A01 T01491025  RH  030%=      5-min Rain = 0
KVA1 132306Z 21006KT 15/M02 A3009 RMK A01 T01481024  RH  030%=      5-min Rain = 0
KVA1 132307Z 20005KT 15/M03 A3009 RMK A01 T01481026  RH  030%=      5-min Rain = 0
KVA1 132308Z 21005KT 15/M02 A3009 RMK A01 T01471021  RH  031%=      5-min Rain = 0
KVA1 132309Z 22007KT 15/M02 A3009 RMK A01 T01481020  RH  031%=      5-min Rain = 0
KVA1 132310Z 22005KT 15/M02 A3009 RMK A01 T01471024  RH  031%=      5-min Rain = 0
KVA1 132311Z 23005KT 15/M02 A3009 RMK A01 T01461023  RH  031%=      5-min Rain = 0
KVA1 132312Z 22003KT 15/M02 A3009 RMK A01 T01461023  RH  031%=      5-min Rain = 0
KVA1 132313Z 21003KT 15/M02 A3009 RMK A01 T01471020  RH  032%=      5-min Rain = 0
KVA1 132314Z 18003KT 15/M02 A3009 RMK A01 T01491020  RH  031%=      5-min Rain = 0
KVA1 132315Z 19003KT 15/M02 A3009 RMK A01 T01491022  RH  031%=      5-min Rain = 0
KVA1 132316Z 21003KT 15/M02 A3009 RMK A01 T01491022  RH  031%=      5-min Rain = 0
KVA1 132317Z 22003KT 15/M02 A3009 RMK A01 T01491019  RH  031%=      5-min Rain = 0
KVA1 132318Z 16002KT 15/M02 A3009 RMK A01 T01501019  RH  031%=      5-min Rain = 0
KVA1 132319Z 14002KT 15/M02 A3009 RMK A01 T01511022  RH  030%=      5-min Rain = 0
KVA1 132320Z 13002KT 15/M02 A3009 RMK A01 T01521018  RH  031%=      5-min Rain = 0
KVA1 132321Z 13002KT 15/M02 A3009 RMK A01 T01531020  RH  030%=      5-min Rain = 0
KVA1 132322Z 16001KT 15/M02 A3009 RMK A01 T01521021  RH  030%=      5-min Rain = 0
KVA1 132323Z 24001KT 15/M02 A3009 RMK A01 T01531023  RH  030%=      5-min Rain = 0
KVA1 132324Z 22006KT 15/M02 A3009 RMK A01 T01541022  RH  030%=      5-min Rain = 0
KVA1 132325Z 22006KT 15/M02 A3009 RMK A01 T01531021  RH  030%=      5-min Rain = 0
KVA1 132326Z 23005KT 15/M03 A3009 RMK A01 T01491026  RH  030%=      5-min Rain = 0
KVA1 132327Z 21003KT 15/M02 A3009 RMK A01 T01481023  RH  031%=      5-min Rain = 0
KVA1 132328Z 19004KT 15/M02 A3009 RMK A01 T01481021  RH  031%=      5-min Rain = 0
KVA1 132329Z 20003KT 15/M03 A3009 RMK A01 T01491026  RH  030%=      5-min Rain = 0
KVA1 132330Z 20002KT 15/M03 A3009 RMK A01 T01481026  RH  030%=      5-min Rain = 0
KVA1 132331Z 24005KT 15/M02 A3009 RMK A01 T01491021  RH  031%=      5-min Rain = 0
KVA1 132332Z 21008KT 15/M02 A3009 RMK A01 T01501021  RH  031%=      5-min Rain = 0
KVA1 132333Z 20006KT 15/M02 A3009 RMK A01 T01491022  RH  031%=      5-min Rain = 0
KVA1 132334Z 21005KT 15/M02 A3009 RMK A01 T01481021  RH  031%=      5-min Rain = 0
KVA1 132335Z 20004KT 15/M02 A3009 RMK A01 T01481023  RH  031%=      5-min Rain = 0
KVA1 132336Z 18003KT 15/M02 A3009 RMK A01 T01471022  RH  031%=      5-min Rain = 0
KVA1 132337Z 20001KT 15/M02 A3009 RMK A01 T01471023  RH  031%=      5-min Rain = 0
KVA1 132338Z 23003KT 15/M02 A3009 RMK A01 T01481022  RH  031%=      5-min Rain = 0
KVA1 132339Z 25002KT 15/M02 A3009 RMK A01 T01481023  RH  031%=      5-min Rain = 0
KVA1 132340Z 25003KT 15/M02 A3009 RMK A01 T01491021  RH  031%=      5-min Rain = 0
KVA1 132341Z 22002KT 15/M02 A301 RMK A01 T01501023  RH  030%=      5-min Rain = 0
KVA1 132342Z 19002KT 15/M02 A301 RMK A01 T01501021  RH  031%=      5-min Rain = 0
KVA1 132343Z 21003KT 15/M02 A301 RMK A01 T01491022  RH  031%=      5-min Rain = 0
KVA1 132344Z 22003KT 15/M02 A301 RMK A01 T01491019  RH  031%=      5-min Rain = 0
KVA1 132345Z 21003KT 15/M02 A301 RMK A01 T01491020  RH  031%=      5-min Rain = 0
KVA1 132346Z 21007KT 15/M02 A301 RMK A01 T01491018  RH  032%=      5-min Rain = 0
KVA1 132347Z 20004KT 15/M02 A301 RMK A01 T01481021  RH  031%=      5-min Rain = 0
KVA1 132348Z 19004KT 15/M02 A301 RMK A01 T01471020  RH  032%=      5-min Rain = 0
KVA1 132349Z 19005KT 15/M02 A301 RMK A01 T01471017  RH  032%=      5-min Rain = 0
KVA1 132350Z 21006KT 15/M02 A301 RMK A01 T01471019  RH  032%=      5-min Rain = 0
KVA1 132351Z 21006KT 15/M02 A301 RMK A01 T01471020  RH  032%=      5-min Rain = 0
KVA1 132352Z 20005KT 15/M02 A301 RMK A01 T01461022  RH  031%=      5-min Rain = 0
KVA1 132353Z 20003KT 15/M02 A301 RMK A01 T01451022  RH  031%=      5-min Rain = 0
KVA1 132354Z 20007KT 15/M02 A301 RMK A01 T01451023  RH  031%=      5-min Rain = 0
KVA1 132355Z 21006KT 15/M02 A301 RMK A01 T01451022  RH  032%=      5-min Rain = 0
KVA1 132356Z 21004KT 14/M02 A301 RMK A01 T01441020  RH  032%=      5-min Rain = 0
KVA1 132357Z 21005KT 14/M02 A301 RMK A01 T01441019  RH  032%=      5-min Rain = 0
KVA1 132358Z 20005KT 14/M02 A301 RMK A01 T01441020  RH  032%=      5-min Rain = 0
KVA1 132359Z 20005KT 14/M02 A301 RMK A01 T01441021  RH  032%=      5-min Rain = 0
KVA1 140000Z 25003KT 14/M02 A301 RMK A01 T01441022  RH  032%=      5-min Rain = 0
KVA1 140001Z 24003KT 14/M02 A301 RMK A01 T01441023  RH  032%=      5-min Rain = 0
KVA1 140002Z 22002KT 14/M02 A301 RMK A01 T01441016  RH  033%=      5-min Rain = 0
KVA1 140003Z 20004KT 15/M02 A301 RMK A01 T01451016  RH  033%=      5-min Rain = 0
KVA1 140004Z 19004KT 15/M02 A301 RMK A01 T01451020  RH  032%=      5-min Rain = 0
KVA1 140005Z 20004KT 15/M02 A301 RMK A01 T01451021  RH  032%=      5-min Rain = 0
KVA1 140006Z 21004KT 14/M02 A301 RMK A01 T01441020  RH  032%=      5-min Rain = 0
KVA1 140007Z 20005KT 14/M02 A301 RMK A01 T01431021  RH  032%=      5-min Rain = 0
KVA1 140008Z 19005KT 14/M02 A301 RMK A01 T01431018  RH  033%=      5-min Rain = 0
KVA1 140009Z 20004KT 14/M01 A301 RMK A01 T01431013  RH  034%=      5-min Rain = 0
KVA1 140010Z 19004KT 14/M01 A301 RMK A01 T01421012  RH  034%=      5-min Rain = 0
KVA1 140011Z 19005KT 14/M01 A301 RMK A01 T01421012  RH  035%=      5-min Rain = 0
KVA1 140012Z 19005KT 14/M01 A301 RMK A01 T01411014  RH  034%=      5-min Rain = 0
KVA1 140013Z 18005KT 14/M01 A301 RMK A01 T01411014  RH  034%=      5-min Rain = 0
KVA1 140014Z 18004KT 14/M01 A301 RMK A01 T01401013  RH  035%=      5-min Rain = 0
KVA1 140015Z 17004KT 14/M01 A301 RMK A01 T01401012  RH  035%=      5-min Rain = 0
KVA1 140016Z 18005KT 14/M01 A301 RMK A01 T01391012  RH  035%=      5-min Rain = 0
KVA1 140017Z 16005KT 14/M01 A301 RMK A01 T01401014  RH  035%=      5-min Rain = 0
KVA1 140018Z 15005KT 14/M02 A301 RMK A01 T01391018  RH  034%=      5-min Rain = 0
KVA1 140019Z 15004KT 14/M02 A301 RMK A01 T01391016  RH  034%=      5-min Rain = 0
KVA1 140020Z 16004KT 14/M02 A301 RMK A01 T01391017  RH  034%=      5-min Rain = 0
KVA1 140021Z 15003KT 14/M02 A301 RMK A01 T01391018  RH  034%=      5-min Rain = 0
KVA1 140022Z 15003KT 14/M02 A301 RMK A01 T01391017  RH  034%=      5-min Rain = 0
KVA1 140023Z 14004KT 14/M02 A301 RMK A01 T01391016  RH  034%=      5-min Rain = 0
KVA1 140024Z 15004KT 14/M02 A301 RMK A01 T01391015  RH  034%=      5-min Rain = 0
KVA1 140025Z 15005KT 14/M01 A301 RMK A01 T01381014  RH  035%=      5-min Rain = 0
KVA1 140026Z 15004KT 14/M01 A301 RMK A01 T01381014  RH  035%=      5-min Rain = 0
KVA1 140027Z 16004KT 14/M02 A301 RMK A01 T01371017  RH  034%=      5-min Rain = 0
KVA1 140028Z 14004KT 14/M02 A301 RMK A01 T01371016  RH  035%=      5-min Rain = 0
KVA1 140029Z 14003KT 14/M01 A301 RMK A01 T01371014  RH  035%=      5-min Rain = 0
KVA1 140030Z 14003KT 14/M01 A301 RMK A01 T01361014  RH  036%=      5-min Rain = 0
KVA1 140031Z 17002KT 14/M01 A3011 RMK A01 T01351013  RH  036%=      5-min Rain = 0
KVA1 140032Z 18003KT 14/M01 A3011 RMK A01 T01351014  RH  036%=      5-min Rain = 0
KVA1 140033Z 17003KT 13/M01 A3011 RMK A01 T01341012  RH  036%=      5-min Rain = 0
KVA1 140034Z 17003KT 13/M01 A3011 RMK A01 T01331009  RH  037%=      5-min Rain = 0
KVA1 140035Z 16003KT 13/M01 A3011 RMK A01 T01321009  RH  038%=      5-min Rain = 0
KVA1 140036Z 16004KT 13/M01 A3011 RMK A01 T01311006  RH  039%=      5-min Rain = 0
KVA1 140037Z 18004KT 13/M00 A3011 RMK A01 T01301004  RH  040%=      5-min Rain = 0
KVA1 140038Z 20004KT 13/M01 A3011 RMK A01 T01281005  RH  040%=      5-min Rain = 0
KVA1 140039Z 18003KT 13/M01 A3011 RMK A01 T01281008  RH  039%=      5-min Rain = 0
KVA1 140040Z 18003KT 13/M00 A3011 RMK A01 T01271004  RH  040%=      5-min Rain = 0
KVA1 140041Z 18003KT 13/M00 A3011 RMK A01 T01261003  RH  041%=      5-min Rain = 0
KVA1 140042Z 19003KT 13/M00 A3011 RMK A01 T01251002  RH  042%=      5-min Rain = 0
KVA1 140043Z 19004KT 12/M00 A3011 RMK A01 T01241003  RH  042%=      5-min Rain = 0
KVA1 140044Z 19004KT 12/M00 A3011 RMK A01 T01231002  RH  042%=      5-min Rain = 0
KVA1 140045Z 19004KT 12/M00 A3011 RMK A01 T01231003  RH  042%=      5-min Rain = 0
KVA1 140046Z 19004KT 12/M00 A3011 RMK A01 T01221002  RH  043%=      5-min Rain = 0
KVA1 140047Z 18004KT 12/M00 A3011 RMK A01 T01211002  RH  043%=      5-min Rain = 0
KVA1 140048Z 18005KT 12/M00 A3011 RMK A01 T01201002  RH  043%=      5-min Rain = 0
KVA1 140049Z 18005KT 12/M00 A3011 RMK A01 T01191001  RH  043%=      5-min Rain = 0
KVA1 140050Z 18005KT 12/M00 A3011 RMK A01 T01191001  RH  044%=      5-min Rain = 0
KVA1 140051Z 18006KT 12/M00 A3011 RMK A01 T01181001  RH  044%=      5-min Rain = 0
KVA1 140052Z 18004KT 12/M00 A3011 RMK A01 T01181004  RH  043%=      5-min Rain = 0
KVA1 140053Z 18004KT 12/M01 A3011 RMK A01 T01191005  RH  042%=      5-min Rain = 0
KVA1 140054Z 18005KT 12/M01 A3011 RMK A01 T01201006  RH  042%=      5-min Rain = 0
KVA1 140055Z 19004KT 12/M01 A3011 RMK A01 T01201006  RH  042%=      5-min Rain = 0
KVA1 140056Z 18004KT 12/M01 A3011 RMK A01 T01201006  RH  042%=      5-min Rain = 0
KVA1 140057Z 18004KT 12/M01 A3011 RMK A01 T01191006  RH  042%=      5-min Rain = 0
KVA1 140058Z 18005KT 12/M01 A3011 RMK A01 T01181006  RH  042%=      5-min Rain = 0
KVA1 140059Z 19004KT 12/M00 A3011 RMK A01 T01171002  RH  044%=      5-min Rain = 0
KVA1 140100Z 21004KT 12/00 A3011 RMK A01 T011500-0  RH  045%=      5-min Rain = 0
KVA1 140101Z 20004KT 11/00 A3011 RMK A01 T01130002  RH  046%=      5-min Rain = 0
KVA1 140102Z 20005KT 11/00 A3011 RMK A01 T01120000  RH  046%=      5-min Rain = 0
KVA1 140103Z 20005KT 11/00 A3011 RMK A01 T01110001  RH  047%=      5-min Rain = 0
KVA1 140104Z 20005KT 11/00 A3012 RMK A01 T01100003  RH  047%=      5-min Rain = 0
KVA1 140105Z 19005KT 11/00 A3012 RMK A01 T01100001  RH  047%=      5-min Rain = 0
KVA1 140106Z 19005KT 11/00 A3012 RMK A01 T011000-0  RH  046%=      5-min Rain = 0
KVA1 140107Z 19005KT 11/00 A3012 RMK A01 T01110002  RH  047%=      5-min Rain = 0
KVA1 140108Z 19005KT 11/00 A3012 RMK A01 T01100001  RH  047%=      5-min Rain = 0
KVA1 140109Z 19005KT 11/00 A3012 RMK A01 T01100002  RH  047%=      5-min Rain = 0
KVA1 140110Z 19004KT 11/01 A3012 RMK A01 T01090005  RH  049%=      5-min Rain = 0
KVA1 140111Z 19004KT 11/01 A3012 RMK A01 T01080006  RH  049%=      5-min Rain = 0
KVA1 140112Z 19004KT 11/01 A3012 RMK A01 T01070006  RH  050%=      5-min Rain = 0
KVA1 140113Z 19004KT 11/01 A3012 RMK A01 T01050006  RH  050%=      5-min Rain = 0
KVA1 140114Z 19004KT 10/01 A3012 RMK A01 T01040008  RH  051%=      5-min Rain = 0
KVA1 140115Z 19005KT 10/01 A3012 RMK A01 T01030007  RH  051%=      5-min Rain = 0
KVA1 140116Z 19004KT 10/01 A3012 RMK A01 T01020012  RH  054%=      5-min Rain = 0
KVA1 140117Z 19004KT 10/01 A3012 RMK A01 T01000012  RH  054%=      5-min Rain = 0
KVA1 140118Z 18004KT 10/01 A3012 RMK A01 T00990011  RH  054%=      5-min Rain = 0
KVA1 140119Z 18004KT 10/01 A3012 RMK A01 T00980010  RH  054%=      5-min Rain = 0
KVA1 140120Z 19005KT 10/01 A3012 RMK A01 T00970010  RH  055%=      5-min Rain = 0
KVA1 140121Z 19005KT 10/01 A3012 RMK A01 T00970008  RH  054%=      5-min Rain = 0
KVA1 140122Z 19005KT 10/01 A3012 RMK A01 T00970007  RH  053%=      5-min Rain = 0
KVA1 140123Z 20004KT 10/01 A3012 RMK A01 T00980008  RH  054%=      5-min Rain = 0
KVA1 140124Z 19004KT 10/01 A3012 RMK A01 T00980009  RH  054%=      5-min Rain = 0
KVA1 140125Z 19004KT 10/01 A3012 RMK A01 T00980011  RH  054%=      5-min Rain = 0
KVA1 140126Z 19005KT 10/01 A3013 RMK A01 T00980013  RH  055%=      5-min Rain = 0
KVA1 140127Z 19005KT 10/01 A3013 RMK A01 T00970014  RH  056%=      5-min Rain = 0
KVA1 140128Z 19004KT 10/01 A3013 RMK A01 T00960011  RH  055%=      5-min Rain = 0
KVA1 140129Z 20004KT 10/01 A3013 RMK A01 T00960009  RH  055%=      5-min Rain = 0
KVA1 140130Z 20004KT 10/01 A3013 RMK A01 T00960009  RH  055%=      5-min Rain = 0
KVA1 140131Z 19004KT 10/01 A3013 RMK A01 T00950008  RH  055%=      5-min Rain = 0
KVA1 140132Z 19004KT 10/01 A3013 RMK A01 T00950010  RH  055%=      5-min Rain = 0
KVA1 140133Z 19004KT 09/01 A3013 RMK A01 T00940011  RH  056%=      5-min Rain = 0
KVA1 140134Z 19003KT 09/01 A3013 RMK A01 T00930011  RH  057%=      5-min Rain = 0
KVA1 140135Z 19003KT 09/01 A3013 RMK A01 T00920012  RH  057%=      5-min Rain = 0
KVA1 140136Z 20003KT 09/01 A3013 RMK A01 T00920009  RH  056%=      5-min Rain = 0
KVA1 140137Z 20003KT 09/01 A3013 RMK A01 T00920008  RH  056%=      5-min Rain = 0
KVA1 140138Z 21002KT 09/01 A3013 RMK A01 T00920011  RH  057%=      5-min Rain = 0
KVA1 140139Z 21002KT 09/01 A3013 RMK A01 T00910011  RH  057%=      5-min Rain = 0
KVA1 140140Z 22002KT 09/01 A3013 RMK A01 T00890011  RH  058%=      5-min Rain = 0
KVA1 140141Z 24002KT 09/01 A3013 RMK A01 T00880012  RH  059%=      5-min Rain = 0
KVA1 140142Z 27003KT 09/02 A3013 RMK A01 T00850015  RH  061%=      5-min Rain = 0
KVA1 140143Z 26003KT 08/02 A3013 RMK A01 T00830018  RH  064%=      5-min Rain = 0
KVA1 140144Z 27003KT 08/02 A3013 RMK A01 T00800020  RH  066%=      5-min Rain = 0
KVA1 140145Z 26003KT 08/02 A3013 RMK A01 T00780021  RH  067%=      5-min Rain = 0
KVA1 140146Z 26002KT 08/02 A3013 RMK A01 T00770020  RH  067%=      5-min Rain = 0
KVA1 140147Z 26003KT 08/02 A3013 RMK A01 T00760020  RH  068%=      5-min Rain = 0
KVA1 140148Z 27003KT 08/02 A3013 RMK A01 T00750019  RH  068%=      5-min Rain = 0
KVA1 140149Z 27003KT 07/02 A3013 RMK A01 T00740020  RH  069%=      5-min Rain = 0
KVA1 140150Z 27003KT 07/02 A3013 RMK A01 T00730020  RH  069%=      5-min Rain = 0
KVA1 140151Z 27003KT 07/02 A3013 RMK A01 T00720021  RH  070%=      5-min Rain = 0
KVA1 140152Z 27003KT 07/02 A3013 RMK A01 T00720023  RH  071%=      5-min Rain = 0
KVA1 140153Z 27003KT 07/02 A3013 RMK A01 T00710023  RH  072%=      5-min Rain = 0
KVA1 140154Z 27003KT 07/02 A3013 RMK A01 T00710022  RH  071%=      5-min Rain = 0
KVA1 140155Z 27003KT 07/02 A3013 RMK A01 T00700022  RH  071%=      5-min Rain = 0
KVA1 140156Z 27003KT 07/02 A3013 RMK A01 T00700022  RH  072%=      5-min Rain = 0
KVA1 140157Z 27003KT 07/02 A3013 RMK A01 T00700022  RH  072%=      5-min Rain = 0
KVA1 140158Z 27003KT 07/02 A3013 RMK A01 T00690022  RH  072%=      5-min Rain = 0
KVA1 140159Z 27002KT 07/02 A3013 RMK A01 T00690021  RH  072%=      5-min Rain = 0
KVA1 140200Z 26002KT 07/02 A3013 RMK A01 T00680020  RH  071%=      5-min Rain = 0
KVA1 140201Z 27002KT 07/02 A3013 RMK A01 T00680021  RH  072%=      5-min Rain = 0
KVA1 140202Z 27002KT 07/02 A3013 RMK A01 T00680021  RH  072%=      5-min Rain = 0
KVA1 140203Z 27002KT 07/02 A3013 RMK A01 T00680021  RH  072%=      5-min Rain = 0
KVA1 140204Z 27002KT 07/02 A3014 RMK A01 T00670021  RH  072%=      5-min Rain = 0
KVA1 140205Z 27002KT 07/02 A3014 RMK A01 T00670022  RH  073%=      5-min Rain = 0
KVA1 140206Z 27002KT 07/02 A3014 RMK A01 T00660022  RH  073%=      5-min Rain = 0
KVA1 140207Z 27002KT 07/02 A3014 RMK A01 T00660023  RH  074%=      5-min Rain = 0
KVA1 140208Z 27002KT 07/02 A3014 RMK A01 T00650023  RH  074%=      5-min Rain = 0
KVA1 140209Z 27002KT 07/02 A3014 RMK A01 T00650022  RH  074%=      5-min Rain = 0
KVA1 140210Z 27002KT 07/02 A3014 RMK A01 T00650022  RH  074%=      5-min Rain = 0
KVA1 140211Z 27002KT 06/02 A3014 RMK A01 T00640022  RH  074%=      5-min Rain = 0
KVA1 140212Z 27002KT 06/02 A3014 RMK A01 T00640022  RH  074%=      5-min Rain = 0
KVA1 140213Z 26002KT 06/02 A3014 RMK A01 T00640022  RH  074%=      5-min Rain = 0
KVA1 140214Z 26002KT 06/02 A3014 RMK A01 T00640022  RH  075%=      5-min Rain = 0
KVA1 140215Z 25002KT 06/02 A3014 RMK A01 T00640023  RH  075%=      5-min Rain = 0
KVA1 140216Z 25002KT 06/02 A3014 RMK A01 T00630023  RH  075%=      5-min Rain = 0
KVA1 140217Z 25002KT 06/02 A3014 RMK A01 T00630022  RH  075%=      5-min Rain = 0
KVA1 140218Z 26002KT 06/02 A3014 RMK A01 T00630022  RH  075%=      5-min Rain = 0
KVA1 140219Z 26002KT 06/02 A3014 RMK A01 T00630021  RH  075%=      5-min Rain = 0
KVA1 140220Z 26002KT 06/02 A3014 RMK A01 T00630022  RH  075%=      5-min Rain = 0
KVA1 140221Z 26002KT 06/02 A3014 RMK A01 T00620024  RH  076%=      5-min Rain = 0
KVA1 140222Z 25002KT 06/03 A3014 RMK A01 T00620025  RH  077%=      5-min Rain = 0
KVA1 140223Z 25002KT 06/03 A3014 RMK A01 T00620025  RH  077%=      5-min Rain = 0
KVA1 140224Z 25002KT 06/03 A3014 RMK A01 T00620025  RH  077%=      5-min Rain = 0
KVA1 140225Z 25002KT 06/03 A3014 RMK A01 T00620025  RH  077%=      5-min Rain = 0
KVA1 140226Z 25002KT 06/03 A3014 RMK A01 T00610025  RH  078%=      5-min Rain = 0
KVA1 140227Z 26002KT 06/02 A3014 RMK A01 T00600024  RH  078%=      5-min Rain = 0
KVA1 140228Z 25003KT 06/02 A3014 RMK A01 T00600024  RH  078%=      5-min Rain = 0
KVA1 140229Z 25002KT 06/02 A3014 RMK A01 T00600024  RH  078%=      5-min Rain = 0
KVA1 140230Z 25003KT 06/02 A3014 RMK A01 T00590023  RH  078%=      5-min Rain = 0
KVA1 140231Z 25003KT 06/02 A3014 RMK A01 T00590023  RH  078%=      5-min Rain = 0
KVA1 140232Z 25003KT 06/02 A3014 RMK A01 T00590024  RH  078%=      5-min Rain = 0
KVA1 140233Z 25002KT 06/02 A3014 RMK A01 T00590023  RH  078%=      5-min Rain = 0
KVA1 140234Z 26002KT 06/02 A3015 RMK A01 T00590023  RH  078%=      5-min Rain = 0
KVA1 140235Z 25003KT 06/02 A3015 RMK A01 T00580022  RH  078%=      5-min Rain = 0
KVA1 140236Z 25002KT 06/02 A3015 RMK A01 T00590022  RH  077%=      5-min Rain = 0
KVA1 140237Z 26003KT 06/02 A3015 RMK A01 T00580022  RH  077%=      5-min Rain = 0
KVA1 140238Z 27002KT 06/02 A3015 RMK A01 T00580022  RH  078%=      5-min Rain = 0
KVA1 140239Z 27003KT 06/02 A3015 RMK A01 T00570022  RH  078%=      5-min Rain = 0
KVA1 140240Z 27003KT 06/02 A3015 RMK A01 T00570023  RH  079%=      5-min Rain = 0
KVA1 140241Z 27003KT 06/02 A3015 RMK A01 T00560022  RH  079%=      5-min Rain = 0
KVA1 140242Z 26003KT 06/02 A3015 RMK A01 T00550022  RH  079%=      5-min Rain = 0
KVA1 140243Z 26003KT 06/02 A3015 RMK A01 T00550022  RH  079%=      5-min Rain = 0
KVA1 140244Z 26003KT 06/02 A3015 RMK A01 T00550023  RH  080%=      5-min Rain = 0
KVA1 140245Z 26003KT 05/02 A3015 RMK A01 T00540024  RH  081%=      5-min Rain = 0
KVA1 140246Z 26003KT 05/02 A3015 RMK A01 T00540024  RH  081%=      5-min Rain = 0
KVA1 140247Z 26003KT 05/03 A3015 RMK A01 T00540025  RH  081%=      5-min Rain = 0
KVA1 140248Z 26003KT 05/02 A3015 RMK A01 T00540024  RH  081%=      5-min Rain = 0
KVA1 140249Z 27002KT 05/02 A3015 RMK A01 T00540024  RH  081%=      5-min Rain = 0
KVA1 140250Z 28003KT 05/02 A3015 RMK A01 T00540023  RH  081%=      5-min Rain = 0
KVA1 140251Z 28003KT 05/02 A3015 RMK A01 T00530022  RH  081%=      5-min Rain = 0
KVA1 140252Z 28003KT 05/02 A3015 RMK A01 T00530023  RH  081%=      5-min Rain = 0
KVA1 140253Z 28003KT 05/02 A3015 RMK A01 T00530023  RH  081%=      5-min Rain = 0
KVA1 140254Z 28003KT 05/02 A3015 RMK A01 T00530022  RH  081%=      5-min Rain = 0
KVA1 140255Z 28003KT 05/02 A3015 RMK A01 T00530022  RH  081%=      5-min Rain = 0
KVA1 140256Z 28003KT 05/02 A3015 RMK A01 T00530022  RH  081%=      5-min Rain = 0
KVA1 140257Z 28003KT 05/02 A3015 RMK A01 T00530022  RH  081%=      5-min Rain = 0
KVA1 140258Z 28003KT 05/02 A3015 RMK A01 T00530022  RH  080%=      5-min Rain = 0
KVA1 140259Z 28003KT 05/02 A3015 RMK A01 T00530022  RH  080%=      5-min Rain = 0
KVA1 140300Z 28003KT 05/02 A3015 RMK A01 T00530022  RH  080%=      5-min Rain = 0
KVA1 140301Z 28003KT 05/02 A3015 RMK A01 T00530022  RH  080%=      5-min Rain = 0
KVA1 140302Z 28003KT 05/02 A3015 RMK A01 T00530023  RH  081%=      5-min Rain = 0
KVA1 140303Z 27003KT 05/02 A3015 RMK A01 T00530023  RH  081%=      5-min Rain = 0
KVA1 140304Z 27003KT 05/02 A3016 RMK A01 T00530024  RH  081%=      5-min Rain = 0
KVA1 140305Z 27003KT 05/02 A3016 RMK A01 T00530024  RH  081%=      5-min Rain = 0
KVA1 140306Z 27003KT 05/02 A3016 RMK A01 T00530023  RH  081%=      5-min Rain = 0
KVA1 140307Z 27003KT 05/02 A3016 RMK A01 T00530023  RH  081%=      5-min Rain = 0
KVA1 140308Z 27003KT 05/02 A3016 RMK A01 T00530023  RH  081%=      5-min Rain = 0
KVA1 140309Z 27003KT 05/02 A3016 RMK A01 T00530023  RH  081%=      5-min Rain = 0
KVA1 140310Z 27003KT 05/02 A3016 RMK A01 T00530023  RH  081%=      5-min Rain = 0
KVA1 140311Z 27003KT 05/02 A3016 RMK A01 T00530022  RH  081%=      5-min Rain = 0
KVA1 140312Z 28003KT 05/02 A3016 RMK A01 T00520022  RH  081%=      5-min Rain = 0
KVA1 140313Z 28003KT 05/02 A3016 RMK A01 T00520022  RH  081%=      5-min Rain = 0
KVA1 140314Z 28004KT 05/02 A3016 RMK A01 T00520021  RH  081%=      5-min Rain = 0
KVA1 140315Z 28004KT 05/02 A3016 RMK A01 T00510021  RH  081%=      5-min Rain = 0
KVA1 140316Z 29004KT 05/02 A3016 RMK A01 T00510021  RH  081%=      5-min Rain = 0
KVA1 140317Z 29005KT 05/02 A3016 RMK A01 T00510021  RH  081%=      5-min Rain = 0
KVA1 140318Z 29005KT 05/02 A3016 RMK A01 T00510021  RH  081%=      5-min Rain = 0
KVA1 140319Z 29005KT 05/02 A3016 RMK A01 T00500021  RH  081%=      5-min Rain = 0
KVA1 140320Z 29004KT 05/02 A3016 RMK A01 T00500021  RH  082%=      5-min Rain = 0
KVA1 140321Z 29004KT 05/02 A3016 RMK A01 T00500021  RH  082%=      5-min Rain = 0
KVA1 140322Z 29005KT 05/02 A3016 RMK A01 T00500021  RH  081%=      5-min Rain = 0
KVA1 140323Z 29005KT 05/02 A3016 RMK A01 T00500021  RH  081%=      5-min Rain = 0
KVA1 140324Z 29005KT 05/02 A3016 RMK A01 T00510021  RH  081%=      5-min Rain = 0
KVA1 140325Z 29005KT 05/02 A3016 RMK A01 T00510022  RH  082%=      5-min Rain = 0
KVA1 140326Z 29005KT 05/02 A3016 RMK A01 T00510022  RH  082%=      5-min Rain = 0
KVA1 140327Z 29005KT 05/02 A3016 RMK A01 T00510022  RH  081%=      5-min Rain = 0
KVA1 140328Z 28004KT 05/02 A3016 RMK A01 T00510021  RH  081%=      5-min Rain = 0
KVA1 140329Z 28004KT 05/02 A3016 RMK A01 T00510021  RH  081%=      5-min Rain = 0
KVA1 140330Z 29005KT 05/02 A3016 RMK A01 T00510021  RH  081%=      5-min Rain = 0
KVA1 140331Z 29004KT 05/02 A3016 RMK A01 T00500021  RH  081%=      5-min Rain = 0
KVA1 140332Z 29004KT 05/02 A3016 RMK A01 T00500021  RH  081%=      5-min Rain = 0
KVA1 140333Z 29004KT 05/02 A3016 RMK A01 T00500021  RH  081%=      5-min Rain = 0
KVA1 140334Z 03005KT 05/02 A3016 RMK A01 T00500021  RH  082%=      5-min Rain = 0
KVA1 140335Z 04005KT 05/02 A3016 RMK A01 T00500020  RH  081%=      5-min Rain = 0
KVA1 140336Z 06005KT 05/02 A3016 RMK A01 T00520019  RH  079%=      5-min Rain = 0
KVA1 140337Z 06005KT 05/02 A3016 RMK A01 T00540018  RH  078%=      5-min Rain = 0
KVA1 140338Z 06005KT 06/02 A3016 RMK A01 T00570017  RH  076%=      5-min Rain = 0
KVA1 140339Z 06004KT 06/02 A3016 RMK A01 T00580017  RH  075%=      5-min Rain = 0
KVA1 140340Z 06003KT 06/02 A3016 RMK A01 T00590017  RH  075%=      5-min Rain = 0
KVA1 140341Z 06003KT 06/02 A3016 RMK A01 T00590018  RH  075%=      5-min Rain = 0
KVA1 140342Z 07003KT 06/02 A3016 RMK A01 T00590018  RH  075%=      5-min Rain = 0
KVA1 140343Z 07003KT 06/02 A3016 RMK A01 T00580017  RH  075%=      5-min Rain = 0
KVA1 140344Z 07003KT 06/02 A3016 RMK A01 T00580016  RH  075%=      5-min Rain = 0
KVA1 140345Z 07003KT 06/02 A3016 RMK A01 T00570015  RH  074%=      5-min Rain = 0
KVA1 140346Z 07002KT 06/02 A3016 RMK A01 T00570015  RH  075%=      5-min Rain = 0
KVA1 140347Z 06002KT 06/02 A3016 RMK A01 T00570016  RH  075%=      5-min Rain = 0
KVA1 140348Z 06003KT 06/02 A3016 RMK A01 T00570018  RH  076%=      5-min Rain = 0
KVA1 140349Z 06003KT 06/02 A3016 RMK A01 T00560017  RH  076%=      5-min Rain = 0
KVA1 140350Z 06003KT 06/02 A3016 RMK A01 T00560016  RH  075%=      5-min Rain = 0
KVA1 140351Z 07004KT 06/02 A3017 RMK A01 T00560016  RH  076%=      5-min Rain = 0
KVA1 140352Z 07004KT 06/02 A3017 RMK A01 T00560016  RH  075%=      5-min Rain = 0
KVA1 140353Z 07003KT 06/02 A3016 RMK A01 T00560015  RH  075%=      5-min Rain = 0
KVA1 140354Z 07003KT 06/02 A3016 RMK A01 T00560015  RH  075%=      5-min Rain = 0
KVA1 140355Z 07004KT 06/02 A3016 RMK A01 T00570015  RH  074%=      5-min Rain = 0
KVA1 140356Z 07004KT 06/01 A3016 RMK A01 T00570014  RH  074%=      5-min Rain = 0
KVA1 140357Z 08004KT 06/01 A3016 RMK A01 T00570014  RH  074%=      5-min Rain = 0
KVA1 140358Z 07004KT 06/01 A3017 RMK A01 T00570014  RH  074%=      5-min Rain = 0
KVA1 140359Z 07004KT 06/01 A3017 RMK A01 T00580014  RH  073%=      5-min Rain = 0
KVA1 140400Z 07004KT 06/01 A3017 RMK A01 T00590013  RH  072%=      5-min Rain = 0
KVA1 140401Z 07004KT 06/01 A3017 RMK A01 T00600012  RH  071%=      5-min Rain = 0
KVA1 140402Z 07004KT 06/01 A3017 RMK A01 T00600012  RH  071%=      5-min Rain = 0
KVA1 140403Z 06004KT 06/01 A3017 RMK A01 T00610013  RH  072%=      5-min Rain = 0
KVA1 140404Z 06004KT 06/01 A3017 RMK A01 T00600013  RH  072%=      5-min Rain = 0
KVA1 140405Z 05004KT 06/01 A3017 RMK A01 T00600013  RH  072%=      5-min Rain = 0
KVA1 140406Z 05004KT 06/01 A3017 RMK A01 T00590012  RH  072%=      5-min Rain = 0
KVA1 140407Z 04004KT 06/01 A3017 RMK A01 T00590012  RH  072%=      5-min Rain = 0
KVA1 140408Z 03004KT 06/01 A3017 RMK A01 T00590013  RH  072%=      5-min Rain = 0
KVA1 140409Z 03003KT 06/01 A3017 RMK A01 T00570013  RH  073%=      5-min Rain = 0
KVA1 140410Z 03003KT 06/01 A3017 RMK A01 T00560013  RH  074%=      5-min Rain = 0
KVA1 140411Z 04003KT 06/01 A3017 RMK A01 T00550013  RH  074%=      5-min Rain = 0
KVA1 140412Z 04003KT 06/01 A3017 RMK A01 T00550013  RH  074%=      5-min Rain = 0
KVA1 140413Z 05003KT 06/01 A3017 RMK A01 T00560012  RH  074%=      5-min Rain = 0
KVA1 140414Z 05003KT 06/01 A3017 RMK A01 T00570012  RH  073%=      5-min Rain = 0
KVA1 140415Z 05003KT 06/01 A3017 RMK A01 T00570012  RH  073%=      5-min Rain = 0
KVA1 140416Z 06003KT 06/01 A3017 RMK A01 T00570012  RH  073%=      5-min Rain = 0
KVA1 140417Z 06003KT 06/01 A3017 RMK A01 T00570012  RH  073%=      5-min Rain = 0
KVA1 140418Z 06003KT 06/01 A3017 RMK A01 T00580013  RH  073%=      5-min Rain = 0
KVA1 140419Z 06003KT 06/01 A3017 RMK A01 T00570012  RH  073%=      5-min Rain = 0
KVA1 140420Z 07003KT 06/01 A3017 RMK A01 T00560012  RH  073%=      5-min Rain = 0
KVA1 140421Z 07003KT 06/01 A3017 RMK A01 T00560011  RH  073%=      5-min Rain = 0
KVA1 140422Z 07003KT 06/01 A3017 RMK A01 T00560010  RH  073%=      5-min Rain = 0
KVA1 140423Z 06003KT 06/01 A3017 RMK A01 T00560011  RH  073%=      5-min Rain = 0
KVA1 140424Z 06003KT 06/01 A3017 RMK A01 T00560010  RH  072%=      5-min Rain = 0
KVA1 140425Z 06003KT 06/01 A3017 RMK A01 T00560009  RH  072%=      5-min Rain = 0
KVA1 140426Z 07003KT 06/01 A3017 RMK A01 T00570009  RH  072%=      5-min Rain = 0
KVA1 140427Z 06003KT 06/01 A3017 RMK A01 T00570009  RH  071%=      5-min Rain = 0
KVA1 140428Z 06003KT 06/01 A3017 RMK A01 T00570008  RH  071%=      5-min Rain = 0
KVA1 140429Z 06002KT 06/01 A3017 RMK A01 T00560008  RH  071%=      5-min Rain = 0
KVA1 140430Z 05002KT 06/01 A3017 RMK A01 T00570008  RH  071%=      5-min Rain = 0
KVA1 140431Z 05002KT 06/01 A3017 RMK A01 T00570009  RH  071%=      5-min Rain = 0
KVA1 140432Z 05002KT 06/01 A3017 RMK A01 T00560010  RH  072%=      5-min Rain = 0
KVA1 140433Z 02002KT 05/01 A3017 RMK A01 T00540011  RH  074%=      5-min Rain = 0
KVA1 140434Z 36002KT 05/01 A3017 RMK A01 T00510010  RH  075%=      5-min Rain = 0
KVA1 140435Z 34003KT 05/01 A3017 RMK A01 T00490008  RH  075%=      5-min Rain = 0
KVA1 140436Z 32004KT 05/01 A3017 RMK A01 T00470007  RH  075%=      5-min Rain = 0
KVA1 140437Z 32006KT 05/01 A3017 RMK A01 T00450007  RH  077%=      5-min Rain = 0
KVA1 140438Z 32005KT 04/01 A3017 RMK A01 T00440009  RH  078%=      5-min Rain = 0
KVA1 140439Z 32005KT 04/01 A3017 RMK A01 T00420009  RH  079%=      5-min Rain = 0
KVA1 140440Z 32005KT 04/01 A3017 RMK A01 T00430011  RH  080%=      5-min Rain = 0
KVA1 140441Z 32005KT 04/01 A3017 RMK A01 T00420011  RH  080%=      5-min Rain = 0
KVA1 140442Z 32006KT 04/01 A3017 RMK A01 T00420011  RH  080%=      5-min Rain = 0
KVA1 140443Z 32006KT 04/01 A3017 RMK A01 T00430012  RH  080%=      5-min Rain = 0
KVA1 140444Z 32006KT 04/01 A3017 RMK A01 T00430011  RH  080%=      5-min Rain = 0
KVA1 140445Z 32006KT 04/01 A3017 RMK A01 T00440012  RH  080%=      5-min Rain = 0
KVA1 140446Z 32006KT 04/01 A3017 RMK A01 T00440012  RH  080%=      5-min Rain = 0
KVA1 140447Z 32006KT 04/01 A3017 RMK A01 T00440012  RH  080%=      5-min Rain = 0
KVA1 140448Z 33006KT 04/01 A3017 RMK A01 T00440012  RH  080%=      5-min Rain = 0
KVA1 140449Z 33006KT 04/01 A3017 RMK A01 T00430013  RH  080%=      5-min Rain = 0
KVA1 140450Z 33006KT 04/01 A3017 RMK A01 T00430013  RH  081%=      5-min Rain = 0
KVA1 140451Z 33006KT 04/01 A3017 RMK A01 T00420012  RH  081%=      5-min Rain = 0
KVA1 140452Z 33006KT 04/01 A3017 RMK A01 T00420012  RH  081%=      5-min Rain = 0
KVA1 140453Z 33006KT 04/01 A3017 RMK A01 T00420012  RH  081%=      5-min Rain = 0
KVA1 140454Z 32007KT 04/01 A3017 RMK A01 T00410012  RH  081%=      5-min Rain = 0
KVA1 140455Z 32006KT 04/01 A3017 RMK A01 T00410012  RH  081%=      5-min Rain = 0
KVA1 140456Z 33006KT 04/01 A3017 RMK A01 T00410012  RH  081%=      5-min Rain = 0
KVA1 140457Z 33006KT 04/01 A3017 RMK A01 T00410011  RH  081%=      5-min Rain = 0
KVA1 140458Z 33006KT 04/01 A3017 RMK A01 T00410011  RH  081%=      5-min Rain = 0
KVA1 140459Z 32006KT 04/01 A3017 RMK A01 T00410011  RH  081%=      5-min Rain = 0
KVA1 140500Z 33007KT 04/01 A3017 RMK A01 T00410011  RH  081%=      5-min Rain = 0
KVA1 140501Z 33006KT 04/01 A3017 RMK A01 T00420011  RH  080%=      5-min Rain = 0
KVA1 140502Z 33006KT 04/01 A3017 RMK A01 T00420011  RH  080%=      5-min Rain = 0
KVA1 140503Z 33006KT 04/01 A3017 RMK A01 T00430011  RH  080%=      5-min Rain = 0
KVA1 140504Z 33006KT 04/01 A3017 RMK A01 T00430011  RH  080%=      5-min Rain = 0
KVA1 140505Z 33006KT 04/01 A3017 RMK A01 T00430011  RH  079%=      5-min Rain = 0
KVA1 140506Z 33006KT 04/01 A3017 RMK A01 T00440010  RH  079%=      5-min Rain = 0
KVA1 140507Z 33006KT 04/01 A3017 RMK A01 T00440010  RH  079%=      5-min Rain = 0
KVA1 140508Z 33006KT 04/01 A3017 RMK A01 T00440010  RH  078%=      5-min Rain = 0
KVA1 140509Z 33006KT 05/01 A3017 RMK A01 T00450010  RH  078%=      5-min Rain = 0
KVA1 140510Z 33006KT 05/01 A3017 RMK A01 T00450010  RH  078%=      5-min Rain = 0
KVA1 140511Z 33007KT 05/01 A3017 RMK A01 T00450010  RH  078%=      5-min Rain = 0
KVA1 140512Z 33007KT 05/01 A3017 RMK A01 T00450010  RH  078%=      5-min Rain = 0
KVA1 140513Z 33007KT 05/01 A3017 RMK A01 T00450010  RH  078%=      5-min Rain = 0
KVA1 140514Z 34006KT 05/01 A3017 RMK A01 T00450010  RH  078%=      5-min Rain = 0
KVA1 140515Z 33006KT 05/01 A3017 RMK A01 T00450010  RH  078%=      5-min Rain = 0
KVA1 140516Z 33006KT 04/01 A3017 RMK A01 T00440010  RH  078%=      5-min Rain = 0
KVA1 140517Z 33007KT 04/01 A3017 RMK A01 T00440010  RH  078%=      5-min Rain = 0
KVA1 140518Z 33007KT 04/01 A3017 RMK A01 T00440010  RH  078%=      5-min Rain = 0
KVA1 140519Z 33007KT 04/01 A3017 RMK A01 T00440010  RH  078%=      5-min Rain = 0
KVA1 140520Z 33007KT 04/01 A3017 RMK A01 T00440010  RH  078%=      5-min Rain = 0
KVA1 140521Z 33007KT 04/01 A3017 RMK A01 T00440010  RH  078%=      5-min Rain = 0
KVA1 140522Z 33006KT 04/01 A3017 RMK A01 T00440009  RH  078%=      5-min Rain = 0
KVA1 140523Z 33006KT 04/01 A3017 RMK A01 T00440009  RH  078%=      5-min Rain = 0
KVA1 140524Z 34006KT 04/01 A3017 RMK A01 T00430009  RH  078%=      5-min Rain = 0
KVA1 140525Z 34006KT 04/01 A3017 RMK A01 T00430009  RH  078%=      5-min Rain = 0
KVA1 140526Z 34006KT 04/01 A3017 RMK A01 T00430008  RH  078%=      5-min Rain = 0
KVA1 140527Z 34006KT 04/01 A3017 RMK A01 T00430008  RH  078%=      5-min Rain = 0
KVA1 140528Z 34006KT 04/01 A3017 RMK A01 T00430008  RH  078%=      5-min Rain = 0
KVA1 140529Z 34005KT 04/01 A3017 RMK A01 T00430008  RH  078%=      5-min Rain = 0
KVA1 140530Z 34005KT 04/01 A3017 RMK A01 T00430007  RH  078%=      5-min Rain = 0
KVA1 140531Z 35005KT 04/01 A3017 RMK A01 T00420007  RH  078%=      5-min Rain = 0
KVA1 140532Z 35005KT 04/01 A3017 RMK A01 T00420007  RH  078%=      5-min Rain = 0
KVA1 140533Z 35005KT 04/01 A3017 RMK A01 T00420007  RH  078%=      5-min Rain = 0
KVA1 140534Z 35005KT 04/01 A3017 RMK A01 T00410008  RH  079%=      5-min Rain = 0
KVA1 140535Z 35004KT 04/01 A3017 RMK A01 T00410008  RH  079%=      5-min Rain = 0
KVA1 140536Z 34005KT 04/01 A3017 RMK A01 T00400007  RH  079%=      5-min Rain = 0
KVA1 140537Z 34005KT 04/01 A3017 RMK A01 T00390006  RH  079%=      5-min Rain = 0
KVA1 140538Z 34004KT 04/01 A3018 RMK A01 T00390006  RH  079%=      5-min Rain = 0
KVA1 140539Z 34004KT 04/01 A3018 RMK A01 T00390006  RH  079%=      5-min Rain = 0
KVA1 140540Z 33004KT 04/01 A3018 RMK A01 T00390006  RH  079%=      5-min Rain = 0
KVA1 140541Z 34004KT 04/01 A3018 RMK A01 T00390006  RH  079%=      5-min Rain = 0
KVA1 140542Z 33004KT 04/01 A3018 RMK A01 T00380006  RH  079%=      5-min Rain = 0
KVA1 140543Z 33004KT 04/01 A3018 RMK A01 T00380005  RH  080%=      5-min Rain = 0
KVA1 140544Z 33004KT 04/01 A3018 RMK A01 T00370005  RH  080%=      5-min Rain = 0
KVA1 140545Z 32003KT 04/01 A3018 RMK A01 T00360005  RH  080%=      5-min Rain = 0
KVA1 140546Z 32003KT 04/01 A3017 RMK A01 T00350005  RH  081%=      5-min Rain = 0
KVA1 140547Z 31002KT 04/01 A3017 RMK A01 T00350007  RH  082%=      5-min Rain = 0
KVA1 140548Z 27002KT 04/01 A3018 RMK A01 T00350008  RH  083%=      5-min Rain = 0
KVA1 140549Z 24002KT 03/01 A3018 RMK A01 T00340008  RH  083%=      5-min Rain = 0
KVA1 140550Z 26002KT 03/01 A3018 RMK A01 T00330008  RH  083%=      5-min Rain = 0
KVA1 140551Z 28003KT 03/01 A3017 RMK A01 T00320007  RH  084%=      5-min Rain = 0
KVA1 140552Z 28003KT 03/01 A3017 RMK A01 T00320007  RH  084%=      5-min Rain = 0
KVA1 140553Z 29003KT 03/01 A3017 RMK A01 T00320006  RH  083%=      5-min Rain = 0
KVA1 140554Z 29003KT 03/01 A3017 RMK A01 T00320007  RH  084%=      5-min Rain = 0
KVA1 140555Z 28003KT 03/01 A3017 RMK A01 T00310007  RH  085%=      5-min Rain = 0
KVA1 140556Z 27002KT 03/01 A3017 RMK A01 T00300007  RH  085%=      5-min Rain = 0
KVA1 140557Z 26002KT 03/01 A3017 RMK A01 T00290007  RH  085%=      5-min Rain = 0
KVA1 140558Z 27003KT 03/01 A3017 RMK A01 T00290006  RH  085%=      5-min Rain = 0
KVA1 140559Z 28003KT 03/01 A3017 RMK A01 T00280006  RH  086%=      5-min Rain = 0

Page generated in 0.0794 seconds.